Wetterdaten: Dienstag, 17.01.2023
Datum Zeit Temp. Aussen Temp. o. S. Temp +5cm Feuchte Auss Luftdruck Regen Sonnenschein Regendauer Solar Windben Empfang
17.01.2023 00:00 3,7 C 3,3 C 0,6 C 95 % 982,5 hPa 0,0 l/m 0 min 0 min 0 W/m 12,9 km/h (3 Bft) 95,65 %
17.01.2023 00:02 3,7 C 3,3 C 0,6 C 95 % 982,5 hPa 0,0 l/m 0 min 0 min 0 W/m 9,7 km/h (2 Bft) 95,00 %
17.01.2023 00:04 3,7 C 3,3 C 0,6 C 95 % 982,5 hPa 0,0 l/m 0 min 2 min 0 W/m 16,1 km/h (3 Bft) 100,00 %
17.01.2023 00:07 3,7 C 3,3 C 0,6 C 95 % 982,6 hPa 0,0 l/m 0 min 3 min 0 W/m 16,1 km/h (3 Bft) 98,57 %
17.01.2023 00:08 3,7 C 3,3 C 0,6 C 95 % 982,6 hPa 0,0 l/m 0 min 1 min 0 W/m 12,9 km/h (3 Bft) 91,67 %
17.01.2023 00:12 3,7 C 2,8 C 0,6 C 95 % 982,5 hPa 0,0 l/m 0 min 4 min 0 W/m 16,1 km/h (3 Bft) 90,00 %
17.01.2023 00:14 3,7 C 2,8 C 0,6 C 95 % 982,5 hPa 0,0 l/m 0 min 2 min 0 W/m 16,1 km/h (3 Bft) 92,31 %
17.01.2023 00:16 3,7 C 2,8 C 0,6 C 95 % 982,6 hPa 0,0 l/m 0 min 2 min 0 W/m 16,1 km/h (3 Bft) 95,74 %
17.01.2023 00:18 3,6 C 2,8 C 0,6 C 95 % 982,6 hPa 0,0 l/m 0 min 2 min 0 W/m 22,5 km/h (4 Bft) 100,00 %
17.01.2023 00:20 3,6 C 2,8 C 0,6 C 95 % 982,6 hPa 0,0 l/m 0 min 2 min 0 W/m 19,3 km/h (3 Bft) 97,87 %
17.01.2023 00:22 3,6 C 2,8 C 0,6 C 95 % 982,6 hPa 0,0 l/m 0 min 2 min 0 W/m 19,3 km/h (3 Bft) 95,65 %
17.01.2023 00:24 3,6 C 2,8 C 0,6 C 95 % 982,7 hPa 0,0 l/m 0 min 2 min 0 W/m 22,5 km/h (4 Bft) 87,23 %
17.01.2023 00:26 3,6 C 2,8 C 0,6 C 95 % 982,8 hPa 0,0 l/m 0 min 2 min 0 W/m 35,4 km/h (5 Bft) 100,00 %
17.01.2023 00:28 3,6 C 2,8 C 0,6 C 95 % 982,8 hPa 0,0 l/m 0 min 2 min 0 W/m 19,3 km/h (3 Bft) 89,36 %
17.01.2023 00:30 3,6 C 2,8 C 0,6 C 95 % 982,9 hPa 0,0 l/m 0 min 2 min 0 W/m 22,5 km/h (4 Bft) 95,74 %
17.01.2023 00:32 3,5 C 2,8 C 0,6 C 95 % 982,9 hPa 0,0 l/m 0 min 2 min 0 W/m 19,3 km/h (3 Bft) 89,36 %
17.01.2023 00:34 3,5 C 2,8 C 0,0 C 95 % 982,9 hPa 0,0 l/m 0 min 2 min 0 W/m 16,1 km/h (3 Bft) 82,98 %
17.01.2023 00:36 3,5 C 2,8 C 0,0 C 95 % 983,0 hPa 0,0 l/m 0 min 0 min 0 W/m 16,1 km/h (3 Bft) 93,62 %
17.01.2023 00:38 3,4 C 2,8 C 0,0 C 95 % 983,0 hPa 0,0 l/m 0 min 2 min 0 W/m 19,3 km/h (3 Bft) 91,30 %
17.01.2023 00:40 3,4 C 2,8 C 0,0 C 95 % 983,0 hPa 0,2 l/m 0 min 2 min 0 W/m 22,5 km/h (4 Bft) 93,62 %
17.01.2023 00:42 3,4 C 2,8 C 0,0 C 95 % 983,0 hPa 0,0 l/m 0 min 2 min 0 W/m 19,3 km/h (3 Bft) 95,74 %
17.01.2023 00:44 3,3 C 2,8 C 0,0 C 95 % 983,0 hPa 0,0 l/m 0 min 2 min 0 W/m 29,0 km/h (5 Bft) 93,62 %
17.01.2023 00:46 3,3 C 2,8 C 0,0 C 95 % 983,1 hPa 0,0 l/m 0 min 2 min 0 W/m 19,3 km/h (3 Bft) 87,23 %
17.01.2023 00:48 3,3 C 2,8 C 0,0 C 95 % 983,1 hPa 0,0 l/m 0 min 0 min 0 W/m 12,9 km/h (3 Bft) 93,62 %
17.01.2023 00:50 3,3 C 2,8 C 0,0 C 95 % 983,2 hPa 0,0 l/m 0 min 2 min 0 W/m 16,1 km/h (3 Bft) 93,62 %
17.01.2023 00:52 3,3 C 2,8 C 0,0 C 95 % 983,2 hPa 0,0 l/m 0 min 0 min 0 W/m 19,3 km/h (3 Bft) 93,48 %
17.01.2023 00:54 3,3 C 2,8 C 0,0 C 95 % 983,2 hPa 0,0 l/m 0 min 2 min 0 W/m 19,3 km/h (3 Bft) 93,62 %
17.01.2023 00:56 3,4 C 2,8 C 0,0 C 95 % 983,3 hPa 0,0 l/m 0 min 2 min 0 W/m 12,9 km/h (3 Bft) 89,36 %
17.01.2023 00:58 3,4 C 2,8 C 0,0 C 95 % 983,3 hPa 0,0 l/m 0 min 0 min 0 W/m 25,7 km/h (4 Bft) 93,62 %
17.01.2023 01:00 3,4 C 2,8 C 0,0 C 95 % 983,3 hPa 0,0 l/m 0 min 0 min 0 W/m 16,1 km/h (3 Bft) 95,74 %
17.01.2023 01:02 3,4 C 2,8 C 0,0 C 95 % 983,5 hPa 0,0 l/m 0 min 2 min 0 W/m 22,5 km/h (4 Bft) 93,62 %
17.01.2023 01:04 3,4 C 2,8 C 0,0 C 95 % 983,5 hPa 0,0 l/m 0 min 2 min 0 W/m 25,7 km/h (4 Bft) 95,74 %
17.01.2023 01:06 3,3 C 2,8 C 0,0 C 95 % 983,5 hPa 0,0 l/m 0 min 2 min 0 W/m 16,1 km/h (3 Bft) 94,83 %
17.01.2023 01:08 3,3 C 2,8 C 0,0 C 95 % 983,5 hPa 0,0 l/m 0 min 0 min 0 W/m 16,1 km/h (3 Bft) 94,29 %
17.01.2023 01:10 3,3 C 2,8 C 0,0 C 95 % 983,6 hPa 0,0 l/m 0 min 2 min 0 W/m 16,1 km/h (3 Bft) 97,87 %
17.01.2023 01:12 3,3 C 2,8 C 0,0 C 95 % 983,6 hPa 0,0 l/m 0 min 2 min 0 W/m 16,1 km/h (3 Bft) 95,74 %
17.01.2023 01:14 3,3 C 2,8 C 0,0 C 95 % 983,7 hPa 0,0 l/m 0 min 2 min 0 W/m 16,1 km/h (3 Bft) 95,74 %
17.01.2023 01:16 3,2 C 2,8 C 0,0 C 95 % 983,7 hPa 0,2 l/m 0 min 2 min 0 W/m 22,5 km/h (4 Bft) 97,87 %
17.01.2023 01:18 3,2 C 2,8 C 0,0 C 95 % 983,7 hPa 0,0 l/m 0 min 2 min 0 W/m 16,1 km/h (3 Bft) 97,83 %
17.01.2023 01:20 3,1 C 2,2 C 0,0 C 95 % 983,6 hPa 0,0 l/m 0 min 2 min 0 W/m 16,1 km/h (3 Bft) 97,87 %
17.01.2023 01:22 3,1 C 2,2 C 0,0 C 95 % 983,6 hPa 0,0 l/m 0 min 2 min 0 W/m 12,9 km/h (3 Bft) 97,87 %
17.01.2023 01:24 3,1 C 2,2 C 0,0 C 95 % 983,7 hPa 0,0 l/m 0 min 0 min 0 W/m 19,3 km/h (3 Bft) 97,87 %
17.01.2023 01:26 3,1 C 2,2 C 0,0 C 95 % 983,7 hPa 0,0 l/m 0 min 2 min 0 W/m 16,1 km/h (3 Bft) 97,87 %
17.01.2023 01:28 3,1 C 2,8 C 0,0 C 95 % 983,7 hPa 0,0 l/m 0 min 2 min 0 W/m 12,9 km/h (3 Bft) 97,87 %
17.01.2023 01:30 3,1 C 2,8 C 0,0 C 95 % 983,8 hPa 0,2 l/m 0 min 2 min 0 W/m 25,7 km/h (4 Bft) 97,87 %
17.01.2023 01:32 3,2 C 2,8 C 0,0 C 95 % 983,8 hPa 0,0 l/m 0 min 2 min 0 W/m 12,9 km/h (3 Bft) 97,83 %
17.01.2023 01:34 3,1 C 2,2 C 0,0 C 95 % 983,9 hPa 0,2 l/m 0 min 2 min 0 W/m 16,1 km/h (3 Bft) 100,00 %
17.01.2023 01:36 3,1 C 2,2 C 0,0 C 95 % 983,9 hPa 0,0 l/m 0 min 2 min 0 W/m 12,9 km/h (3 Bft) 97,87 %
17.01.2023 01:38 3,1 C 2,2 C 0,0 C 95 % 983,9 hPa 0,0 l/m 0 min 2 min 0 W/m 12,9 km/h (3 Bft) 97,87 %
17.01.2023 01:40 3,1 C 2,2 C 0,0 C 95 % 983,9 hPa 0,2 l/m 0 min 2 min 0 W/m 16,1 km/h (3 Bft) 100,00 %
17.01.2023 01:42 3,1 C 2,8 C 0,0 C 95 % 983,9 hPa 0,0 l/m 0 min 2 min 0 W/m 16,1 km/h (3 Bft) 97,87 %
17.01.2023 01:44 3,2 C 2,8 C 0,0 C 95 % 984,0 hPa 0,0 l/m 0 min 2 min 0 W/m 22,5 km/h (4 Bft) 97,87 %
17.01.2023 01:46 3,2 C 2,8 C 0,0 C 96 % 984,2 hPa 0,2 l/m 0 min 2 min 0 W/m 19,3 km/h (3 Bft) 100,00 %
17.01.2023 01:48 3,1 C 2,2 C 0,0 C 96 % 984,1 hPa 0,0 l/m 0 min 2 min 0 W/m 19,3 km/h (3 Bft) 95,74 %
17.01.2023 01:50 3,1 C 2,2 C 0,0 C 96 % 984,1 hPa 0,2 l/m 0 min 2 min 0 W/m 12,9 km/h (3 Bft) 93,33 %
17.01.2023 01:52 3,1 C 2,2 C 0,0 C 96 % 984,2 hPa 0,0 l/m 0 min 2 min 0 W/m 25,7 km/h (4 Bft) 97,87 %
17.01.2023 01:54 3,1 C 2,8 C 0,0 C 96 % 984,2 hPa 0,0 l/m 0 min 2 min 0 W/m 12,9 km/h (3 Bft) 100,00 %
17.01.2023 01:56 3,2 C 2,8 C 0,0 C 96 % 984,3 hPa 0,2 l/m 0 min 2 min 0 W/m 12,9 km/h (3 Bft) 100,00 %
17.01.2023 01:58 3,2 C 2,8 C 0,0 C 96 % 984,3 hPa 0,0 l/m 0 min 0 min 0 W/m 6,4 km/h (2 Bft) 97,87 %
17.01.2023 02:00 3,2 C 2,8 C 0,0 C 96 % 984,3 hPa 0,0 l/m 0 min 2 min 0 W/m 16,1 km/h (3 Bft) 97,83 %
17.01.2023 02:02 3,1 C 2,8 C 0,0 C 96 % 984,3 hPa 0,0 l/m 0 min 0 min 0 W/m 32,2 km/h (5 Bft) 97,87 %
17.01.2023 02:04 3,1 C 2,2 C 0,0 C 96 % 984,3 hPa 0,0 l/m 0 min 0 min 0 W/m 22,5 km/h (4 Bft) 100,00 %
17.01.2023 02:06 3,1 C 2,2 C 0,0 C 96 % 984,4 hPa 0,0 l/m 0 min 0 min 0 W/m 22,5 km/h (4 Bft) 98,31 %
17.01.2023 02:08 3,0 C 2,2 C 0,0 C 96 % 984,4 hPa 0,0 l/m 0 min 0 min 0 W/m 19,3 km/h (3 Bft) 100,00 %
17.01.2023 02:10 2,9 C 2,2 C 0,0 C 96 % 984,6 hPa 0,0 l/m 0 min 0 min 0 W/m 22,5 km/h (4 Bft) 100,00 %
17.01.2023 02:14 2,9 C 2,2 C 0,0 C 96 % 984,5 hPa 0,0 l/m 0 min 0 min 0 W/m 22,5 km/h (4 Bft) 100,00 %
17.01.2023 02:16 2,8 C 2,2 C 0,0 C 96 % 984,7 hPa 0,0 l/m 0 min 0 min 0 W/m 32,2 km/h (5 Bft) 97,87 %
17.01.2023 02:18 2,8 C 2,2 C 0,0 C 96 % 984,7 hPa 0,0 l/m 0 min 0 min 0 W/m 25,7 km/h (4 Bft) 93,62 %
17.01.2023 02:20 2,8 C 2,2 C 0,0 C 96 % 984,8 hPa 0,0 l/m 0 min 0 min 0 W/m 22,5 km/h (4 Bft) 97,87 %
17.01.2023 02:22 2,8 C 2,2 C 0,0 C 96 % 984,9 hPa 0,0 l/m 0 min 0 min 0 W/m 29,0 km/h (5 Bft) 97,87 %
17.01.2023 02:24 2,8 C 2,2 C 0,0 C 96 % 984,9 hPa 0,0 l/m 0 min 0 min 0 W/m 22,5 km/h (4 Bft) 97,87 %
17.01.2023 02:26 2,7 C 2,2 C 0,0 C 96 % 984,9 hPa 0,0 l/m 0 min 0 min 0 W/m 29,0 km/h (5 Bft) 97,87 %
17.01.2023 02:28 2,7 C 2,2 C -0,6 C 96 % 984,9 hPa 0,0 l/m 0 min 0 min 0 W/m 16,1 km/h (3 Bft) 97,83 %
17.01.2023 02:30 2,7 C 2,2 C 0,0 C 96 % 984,9 hPa 0,0 l/m 0 min 0 min 0 W/m 22,5 km/h (4 Bft) 93,62 %
17.01.2023 02:32 2,7 C 2,2 C 0,0 C 96 % 985,0 hPa 0,0 l/m 0 min 0 min 0 W/m 19,3 km/h (3 Bft) 95,74 %
17.01.2023 02:34 2,7 C 2,2 C 0,0 C 96 % 985,0 hPa 0,0 l/m 0 min 0 min 0 W/m 16,1 km/h (3 Bft) 97,87 %
17.01.2023 02:36 2,7 C 2,2 C -0,6 C 96 % 985,0 hPa 0,0 l/m 0 min 0 min 0 W/m 12,9 km/h (3 Bft) 95,74 %
17.01.2023 02:38 2,7 C 2,2 C -0,6 C 96 % 985,0 hPa 0,0 l/m 0 min 0 min 0 W/m 16,1 km/h (3 Bft) 97,87 %
17.01.2023 02:40 2,7 C 2,2 C -0,6 C 96 % 985,1 hPa 0,0 l/m 0 min 0 min 0 W/m 12,9 km/h (3 Bft) 95,74 %
17.01.2023 02:42 2,7 C 2,2 C -0,6 C 96 % 985,2 hPa 0,0 l/m 0 min 0 min 0 W/m 16,1 km/h (3 Bft) 96,55 %
17.01.2023 02:44 2,7 C 2,2 C -0,6 C 96 % 985,3 hPa 0,0 l/m 0 min 0 min 0 W/m 25,7 km/h (4 Bft) 97,87 %
17.01.2023 02:46 2,7 C 2,2 C 0,0 C 96 % 985,2 hPa 0,0 l/m 0 min 0 min 0 W/m 22,5 km/h (4 Bft) 100,00 %
17.01.2023 02:48 2,7 C 2,2 C -0,6 C 96 % 985,3 hPa 0,0 l/m 0 min 0 min 0 W/m 19,3 km/h (3 Bft) 95,74 %
17.01.2023 02:50 2,7 C 2,2 C -0,6 C 96 % 985,4 hPa 0,0 l/m 0 min 0 min 0 W/m 22,5 km/h (4 Bft) 47,37 %
17.01.2023 02:52 2,7 C 2,2 C -0,6 C 96 % 985,3 hPa 0,0 l/m 0 min 0 min 0 W/m 19,3 km/h (3 Bft) 100,00 %
17.01.2023 02:54 2,7 C 2,2 C -0,6 C 96 % 985,3 hPa 0,0 l/m 0 min 0 min 0 W/m 19,3 km/h (3 Bft) 97,87 %
17.01.2023 02:56 2,7 C 2,2 C -0,6 C 96 % 985,4 hPa 0,0 l/m 0 min 0 min 0 W/m 22,5 km/h (4 Bft) 95,65 %
17.01.2023 02:58 2,7 C 2,2 C -0,6 C 96 % 985,4 hPa 0,0 l/m 0 min 0 min 0 W/m 22,5 km/h (4 Bft) 97,87 %
17.01.2023 03:00 2,7 C 2,2 C -0,6 C 96 % 985,5 hPa 0,0 l/m 0 min 0 min 0 W/m 16,1 km/h (3 Bft) 97,87 %
17.01.2023 03:02 2,8 C 2,2 C -0,6 C 95 % 985,5 hPa 0,0 l/m 0 min 0 min 0 W/m 19,3 km/h (3 Bft) 97,87 %
17.01.2023 03:04 2,8 C 2,2 C -0,6 C 95 % 985,7 hPa 0,0 l/m 0 min 0 min 0 W/m 25,7 km/h (4 Bft) 95,74 %
17.01.2023 03:06 2,8 C 2,2 C -0,6 C 95 % 985,5 hPa 0,0 l/m 0 min 0 min 0 W/m 16,1 km/h (3 Bft) 98,28 %
17.01.2023 03:08 2,8 C 2,2 C -0,6 C 95 % 985,5 hPa 0,0 l/m 0 min 0 min 0 W/m 16,1 km/h (3 Bft) 97,22 %
17.01.2023 03:10 2,8 C 2,2 C -0,6 C 95 % 985,6 hPa 0,0 l/m 0 min 0 min 0 W/m 22,5 km/h (4 Bft) 97,83 %
17.01.2023 03:12 2,7 C 2,2 C -0,6 C 95 % 985,7 hPa 0,0 l/m 0 min 0 min 0 W/m 25,7 km/h (4 Bft) 97,87 %
17.01.2023 03:14 2,7 C 2,2 C -0,6 C 95 % 985,6 hPa 0,0 l/m 0 min 0 min 0 W/m 16,1 km/h (3 Bft) 95,74 %
17.01.2023 03:16 2,7 C 2,2 C -0,6 C 95 % 985,7 hPa 0,0 l/m 0 min 0 min 0 W/m 19,3 km/h (3 Bft) 95,74 %
17.01.2023 03:18 2,7 C 2,2 C -0,6 C 95 % 985,8 hPa 0,0 l/m 0 min 0 min 0 W/m 19,3 km/h (3 Bft) 97,87 %
17.01.2023 03:20 2,7 C 2,2 C -0,6 C 95 % 985,8 hPa 0,0 l/m 0 min 0 min 0 W/m 12,9 km/h (3 Bft) 95,74 %
17.01.2023 03:22 2,7 C 2,2 C -0,6 C 95 % 985,7 hPa 0,0 l/m 0 min 0 min 0 W/m 19,3 km/h (3 Bft) 97,87 %
17.01.2023 03:24 2,7 C 2,2 C -0,6 C 95 % 985,8 hPa 0,0 l/m 0 min 2 min 0 W/m 19,3 km/h (3 Bft) 91,30 %
17.01.2023 03:26 2,7 C 2,2 C -0,6 C 95 % 985,8 hPa 0,0 l/m 0 min 2 min 0 W/m 12,9 km/h (3 Bft) 97,87 %
17.01.2023 03:28 2,7 C 2,2 C -0,6 C 95 % 985,9 hPa 0,0 l/m 0 min 2 min 0 W/m 25,7 km/h (4 Bft) 95,74 %
17.01.2023 03:30 2,7 C 2,2 C -0,6 C 95 % 985,9 hPa 0,0 l/m 0 min 2 min 0 W/m 16,1 km/h (3 Bft) 97,87 %
17.01.2023 03:32 2,7 C 2,2 C -0,6 C 95 % 986,0 hPa 0,0 l/m 0 min 2 min 0 W/m 22,5 km/h (4 Bft) 97,87 %
17.01.2023 03:34 2,6 C 2,2 C -0,6 C 95 % 986,0 hPa 0,0 l/m 0 min 2 min 0 W/m 16,1 km/h (3 Bft) 95,74 %
17.01.2023 03:36 2,6 C 2,2 C -0,6 C 95 % 986,0 hPa 0,0 l/m 0 min 0 min 0 W/m 19,3 km/h (3 Bft) 100,00 %
17.01.2023 03:38 2,6 C 2,2 C -0,6 C 94 % 986,1 hPa 0,0 l/m 0 min 0 min 0 W/m 19,3 km/h (3 Bft) 100,00 %
17.01.2023 03:40 2,6 C 1,7 C -0,6 C 94 % 986,1 hPa 0,0 l/m 0 min 0 min 0 W/m 19,3 km/h (3 Bft) 97,87 %
17.01.2023 03:42 2,5 C 1,7 C -0,6 C 94 % 986,2 hPa 0,0 l/m 0 min 2 min 0 W/m 22,5 km/h (4 Bft) 39,39 %
17.01.2023 03:44 2,5 C 1,7 C -0,6 C 94 % 986,1 hPa 0,0 l/m 0 min 2 min 0 W/m 12,9 km/h (3 Bft) 95,74 %
17.01.2023 03:46 2,4 C 1,7 C -0,6 C 94 % 986,2 hPa 0,0 l/m 0 min 2 min 0 W/m 16,1 km/h (3 Bft) 100,00 %
17.01.2023 03:48 2,4 C 1,7 C -0,6 C 94 % 986,3 hPa 0,0 l/m 0 min 2 min 0 W/m 22,5 km/h (4 Bft) 100,00 %
17.01.2023 03:50 2,3 C 1,7 C -1,1 C 94 % 986,3 hPa 0,0 l/m 0 min 2 min 0 W/m 19,3 km/h (3 Bft) 100,00 %
17.01.2023 03:52 2,2 C 1,1 C -1,1 C 94 % 986,3 hPa 0,0 l/m 0 min 2 min 0 W/m 22,5 km/h (4 Bft) 97,83 %
17.01.2023 03:54 2,2 C 1,1 C -1,1 C 94 % 986,3 hPa 0,2 l/m 0 min 2 min 0 W/m 16,1 km/h (3 Bft) 100,00 %
17.01.2023 03:56 2,1 C 1,1 C -1,1 C 94 % 986,3 hPa 0,0 l/m 0 min 2 min 0 W/m 16,1 km/h (3 Bft) 97,87 %
17.01.2023 03:58 2,1 C 1,1 C -1,1 C 94 % 986,3 hPa 0,0 l/m 0 min 2 min 0 W/m 16,1 km/h (3 Bft) 95,74 %
17.01.2023 04:00 2,1 C 1,1 C -1,1 C 95 % 986,3 hPa 0,0 l/m 0 min 0 min 0 W/m 9,7 km/h (2 Bft) 95,74 %
17.01.2023 04:02 2,1 C 1,1 C -1,1 C 95 % 986,4 hPa 0,0 l/m 0 min 0 min 0 W/m 12,9 km/h (3 Bft) 93,62 %
17.01.2023 04:04 2,1 C 1,1 C -1,1 C 95 % 986,4 hPa 0,0 l/m 0 min 0 min 0 W/m 16,1 km/h (3 Bft) 95,74 %
17.01.2023 04:06 2,1 C 1,1 C -0,6 C 95 % 986,4 hPa 0,0 l/m 0 min 0 min 0 W/m 9,7 km/h (2 Bft) 93,48 %
17.01.2023 04:08 2,1 C 1,1 C -0,6 C 95 % 986,5 hPa 0,0 l/m 0 min 0 min 0 W/m 16,1 km/h (3 Bft) 93,62 %
17.01.2023 04:10 2,1 C 1,1 C -0,6 C 95 % 986,5 hPa 0,0 l/m 0 min 0 min 0 W/m 16,1 km/h (3 Bft) 93,62 %
17.01.2023 04:12 2,1 C 1,1 C -0,6 C 95 % 986,5 hPa 0,0 l/m 0 min 0 min 0 W/m 12,9 km/h (3 Bft) 93,62 %
17.01.2023 04:14 2,1 C 1,1 C -0,6 C 95 % 986,5 hPa 0,0 l/m 0 min 0 min 0 W/m 12,9 km/h (3 Bft) 95,74 %
17.01.2023 04:16 2,1 C 1,1 C -0,6 C 95 % 986,5 hPa 0,0 l/m 0 min 0 min 0 W/m 12,9 km/h (3 Bft) 95,74 %
17.01.2023 04:18 2,1 C 1,1 C -0,6 C 95 % 986,5 hPa 0,0 l/m 0 min 0 min 0 W/m 22,5 km/h (4 Bft) 95,74 %
17.01.2023 04:20 2,0 C 1,1 C -1,1 C 95 % 986,5 hPa 0,0 l/m 0 min 0 min 0 W/m 16,1 km/h (3 Bft) 95,65 %
17.01.2023 04:22 1,9 C 1,1 C -1,1 C 95 % 986,5 hPa 0,0 l/m 0 min 0 min 0 W/m 16,1 km/h (3 Bft) 93,62 %
17.01.2023 04:24 1,9 C 1,1 C -1,1 C 95 % 986,7 hPa 0,0 l/m 0 min 0 min 0 W/m 25,7 km/h (4 Bft) 93,62 %
17.01.2023 04:26 1,9 C 1,1 C -1,1 C 95 % 986,5 hPa 0,0 l/m 0 min 0 min 0 W/m 12,9 km/h (3 Bft) 93,62 %
17.01.2023 04:28 1,9 C 1,1 C -1,1 C 95 % 986,6 hPa 0,0 l/m 0 min 0 min 0 W/m 19,3 km/h (3 Bft) 95,74 %
17.01.2023 04:30 1,8 C 1,1 C -1,1 C 95 % 986,5 hPa 0,0 l/m 0 min 0 min 0 W/m 16,1 km/h (3 Bft) 94,34 %
17.01.2023 04:32 1,8 C 1,1 C -1,1 C 95 % 986,5 hPa 0,0 l/m 0 min 0 min 0 W/m 12,9 km/h (3 Bft) 97,87 %
17.01.2023 04:34 1,8 C 1,1 C -1,1 C 95 % 986,6 hPa 0,0 l/m 0 min 0 min 0 W/m 6,4 km/h (2 Bft) 95,74 %
17.01.2023 04:36 1,7 C 1,1 C -1,1 C 95 % 986,7 hPa 0,0 l/m 0 min 0 min 0 W/m 16,1 km/h (3 Bft) 97,83 %
17.01.2023 04:38 1,7 C 1,1 C -1,1 C 95 % 986,7 hPa 0,0 l/m 0 min 0 min 0 W/m 9,7 km/h (2 Bft) 93,62 %
17.01.2023 04:40 1,7 C 1,1 C -1,1 C 95 % 986,7 hPa 0,0 l/m 0 min 0 min 0 W/m 12,9 km/h (3 Bft) 95,74 %
17.01.2023 04:42 1,6 C 1,1 C -1,1 C 95 % 986,7 hPa 0,0 l/m 0 min 0 min 0 W/m 12,9 km/h (3 Bft) 97,87 %
17.01.2023 04:44 1,6 C 1,1 C -1,1 C 95 % 986,7 hPa 0,0 l/m 0 min 0 min 0 W/m 12,9 km/h (3 Bft) 97,87 %
17.01.2023 04:46 1,6 C 1,1 C -1,1 C 95 % 986,8 hPa 0,0 l/m 0 min 0 min 0 W/m 12,9 km/h (3 Bft) 97,87 %
17.01.2023 04:48 1,6 C 1,1 C -1,1 C 96 % 986,8 hPa 0,0 l/m 0 min 0 min 0 W/m 16,1 km/h (3 Bft) 97,87 %
17.01.2023 04:50 1,6 C 1,1 C -1,1 C 96 % 986,9 hPa 0,0 l/m 0 min 0 min 0 W/m 22,5 km/h (4 Bft) 95,65 %
17.01.2023 04:52 1,6 C 1,1 C -1,1 C 96 % 986,8 hPa 0,0 l/m 0 min 0 min 0 W/m 16,1 km/h (3 Bft) 100,00 %
17.01.2023 04:54 1,6 C 1,1 C -1,1 C 96 % 986,8 hPa 0,0 l/m 0 min 0 min 0 W/m 19,3 km/h (3 Bft) 95,74 %
17.01.2023 04:56 1,6 C 1,1 C -1,1 C 96 % 986,8 hPa 0,0 l/m 0 min 0 min 0 W/m 12,9 km/h (3 Bft) 97,87 %
17.01.2023 04:58 1,6 C 1,1 C -1,1 C 96 % 986,8 hPa 0,0 l/m 0 min 0 min 0 W/m 25,7 km/h (4 Bft) 100,00 %
17.01.2023 05:00 1,6 C 1,1 C -1,1 C 96 % 986,8 hPa 0,0 l/m 0 min 0 min 0 W/m 12,9 km/h (3 Bft) 100,00 %
17.01.2023 05:02 1,6 C 1,1 C -1,1 C 96 % 987,0 hPa 0,0 l/m 0 min 0 min 0 W/m 16,1 km/h (3 Bft) 100,00 %
17.01.2023 05:04 1,7 C 1,1 C -1,1 C 96 % 986,9 hPa 0,0 l/m 0 min 0 min 0 W/m 6,4 km/h (2 Bft) 95,74 %
17.01.2023 05:06 1,7 C 1,1 C -1,1 C 96 % 987,0 hPa 0,0 l/m 0 min 0 min 0 W/m 16,1 km/h (3 Bft) 97,87 %
17.01.2023 05:08 1,7 C 1,1 C -1,1 C 96 % 987,0 hPa 0,0 l/m 0 min 0 min 0 W/m 12,9 km/h (3 Bft) 100,00 %
17.01.2023 05:10 1,8 C 1,1 C -1,1 C 96 % 987,0 hPa 0,0 l/m 0 min 0 min 0 W/m 16,1 km/h (3 Bft) 100,00 %
17.01.2023 05:12 1,8 C 1,1 C -1,1 C 96 % 987,1 hPa 0,0 l/m 0 min 0 min 0 W/m 9,7 km/h (2 Bft) 100,00 %
17.01.2023 05:14 1,8 C 1,1 C -1,1 C 96 % 987,0 hPa 0,0 l/m 0 min 0 min 0 W/m 22,5 km/h (4 Bft) 100,00 %
17.01.2023 05:16 1,8 C 1,1 C -1,1 C 96 % 987,1 hPa 0,0 l/m 0 min 0 min 0 W/m 19,3 km/h (3 Bft) 97,87 %
17.01.2023 05:18 1,8 C 1,1 C -1,1 C 96 % 987,1 hPa 0,0 l/m 0 min 0 min 0 W/m 19,3 km/h (3 Bft) 97,83 %
17.01.2023 05:20 1,8 C 1,1 C -1,1 C 96 % 987,0 hPa 0,0 l/m 0 min 0 min 0 W/m 16,1 km/h (3 Bft) 97,87 %
17.01.2023 05:22 1,8 C 1,1 C -1,1 C 96 % 987,0 hPa 0,0 l/m 0 min 0 min 0 W/m 22,5 km/h (4 Bft) 100,00 %
17.01.2023 05:24 1,8 C 1,1 C -1,1 C 96 % 987,0 hPa 0,0 l/m 0 min 0 min 0 W/m 16,1 km/h (3 Bft) 97,87 %
17.01.2023 05:26 1,8 C 1,1 C -1,1 C 96 % 986,9 hPa 0,0 l/m 0 min 0 min 0 W/m 25,7 km/h (4 Bft) 100,00 %
17.01.2023 05:28 1,8 C 1,1 C -1,1 C 96 % 986,9 hPa 0,0 l/m 0 min 2 min 0 W/m 12,9 km/h (3 Bft) 93,48 %
17.01.2023 05:30 1,7 C 1,1 C -1,1 C 96 % 986,9 hPa 0,0 l/m 0 min 2 min 0 W/m 16,1 km/h (3 Bft) 97,87 %
17.01.2023 05:32 1,7 C 1,1 C -1,1 C 96 % 986,9 hPa 0,0 l/m 0 min 2 min 0 W/m 22,5 km/h (4 Bft) 95,74 %
17.01.2023 05:34 1,7 C 1,1 C -1,1 C 96 % 986,9 hPa 0,0 l/m 0 min 2 min 0 W/m 22,5 km/h (4 Bft) 95,74 %
17.01.2023 05:36 1,7 C 1,1 C -1,1 C 96 % 986,9 hPa 0,0 l/m 0 min 0 min 0 W/m 12,9 km/h (3 Bft) 97,87 %
17.01.2023 05:38 1,7 C 1,1 C -1,1 C 96 % 986,8 hPa 0,0 l/m 0 min 0 min 0 W/m 6,4 km/h (2 Bft) 97,87 %
17.01.2023 05:40 1,7 C 1,1 C -1,1 C 96 % 986,9 hPa 0,0 l/m 0 min 0 min 0 W/m 16,1 km/h (3 Bft) 97,87 %
17.01.2023 05:42 1,6 C 1,1 C -1,1 C 96 % 986,9 hPa 0,0 l/m 0 min 2 min 0 W/m 12,9 km/h (3 Bft) 97,83 %
17.01.2023 05:44 1,6 C 1,1 C -1,1 C 96 % 986,9 hPa 0,0 l/m 0 min 0 min 0 W/m 19,3 km/h (3 Bft) 97,87 %
17.01.2023 05:46 1,6 C 1,1 C -1,1 C 96 % 986,9 hPa 0,0 l/m 0 min 0 min 0 W/m 16,1 km/h (3 Bft) 97,87 %
17.01.2023 05:48 1,6 C 1,1 C -1,1 C 96 % 986,9 hPa 0,0 l/m 0 min 0 min 0 W/m 16,1 km/h (3 Bft) 95,74 %
17.01.2023 05:50 1,6 C 1,1 C -1,1 C 96 % 986,9 hPa 0,0 l/m 0 min 0 min 0 W/m 6,4 km/h (2 Bft) 93,62 %
17.01.2023 05:52 1,6 C 1,1 C -1,1 C 96 % 987,0 hPa 0,0 l/m 0 min 0 min 0 W/m 16,1 km/h (3 Bft) 95,74 %
17.01.2023 05:54 1,6 C 1,1 C -1,1 C 96 % 987,0 hPa 0,0 l/m 0 min 0 min 0 W/m 16,1 km/h (3 Bft) 95,74 %
17.01.2023 05:56 1,6 C 1,1 C -1,1 C 96 % 987,1 hPa 0,0 l/m 0 min 0 min 0 W/m 16,1 km/h (3 Bft) 94,29 %
17.01.2023 05:58 1,6 C 1,1 C -1,1 C 96 % 987,0 hPa 0,0 l/m 0 min 0 min 0 W/m 6,4 km/h (2 Bft) 94,83 %
17.01.2023 06:00 1,6 C 0,6 C -1,1 C 96 % 987,0 hPa 0,0 l/m 0 min 0 min 0 W/m 16,1 km/h (3 Bft) 100,00 %
17.01.2023 06:02 1,5 C 0,6 C -1,1 C 95 % 987,1 hPa 0,0 l/m 0 min 0 min 0 W/m 12,9 km/h (3 Bft) 96,61 %
17.01.2023 06:04 1,5 C 0,6 C -1,1 C 95 % 987,1 hPa 0,0 l/m 0 min 0 min 0 W/m 12,9 km/h (3 Bft) 100,00 %
17.01.2023 06:07 1,5 C 0,6 C -1,1 C 95 % 987,2 hPa 0,0 l/m 0 min 0 min 0 W/m 12,9 km/h (3 Bft) 97,44 %
17.01.2023 06:08 1,4 C 0,6 C -1,1 C 95 % 987,2 hPa 0,0 l/m 0 min 0 min 0 W/m 6,4 km/h (2 Bft) 90,91 %
17.01.2023 06:10 1,5 C 0,6 C -1,1 C 95 % 987,2 hPa 0,0 l/m 0 min 0 min 0 W/m 6,4 km/h (2 Bft) 100,00 %
17.01.2023 06:12 1,4 C 0,6 C -1,1 C 95 % 987,2 hPa 0,0 l/m 0 min 0 min 0 W/m 12,9 km/h (3 Bft) 100,00 %
17.01.2023 06:14 1,4 C 0,6 C -1,1 C 96 % 987,2 hPa 0,0 l/m 0 min 0 min 0 W/m 6,4 km/h (2 Bft) 100,00 %
17.01.2023 06:16 1,4 C 0,6 C -1,1 C 96 % 987,2 hPa 0,0 l/m 0 min 0 min 0 W/m 6,4 km/h (2 Bft) 100,00 %
17.01.2023 06:18 1,4 C 0,6 C -1,1 C 96 % 987,1 hPa 0,0 l/m 0 min 0 min 0 W/m 12,9 km/h (3 Bft) 100,00 %
17.01.2023 06:20 1,4 C 0,6 C -1,1 C 96 % 987,2 hPa 0,0 l/m 0 min 0 min 0 W/m 9,7 km/h (2 Bft) 100,00 %
17.01.2023 06:22 1,3 C 0,6 C -1,7 C 96 % 987,2 hPa 0,0 l/m 0 min 0 min 0 W/m 6,4 km/h (2 Bft) 100,00 %
17.01.2023 06:24 1,3 C 0,6 C -1,7 C 96 % 987,3 hPa 0,0 l/m 0 min 0 min 0 W/m 6,4 km/h (2 Bft) 100,00 %
17.01.2023 06:26 1,3 C 0,6 C -1,7 C 96 % 987,2 hPa 0,0 l/m 0 min 0 min 0 W/m 12,9 km/h (3 Bft) 91,49 %
17.01.2023 06:28 1,3 C 0,6 C -1,7 C 96 % 987,3 hPa 0,0 l/m 0 min 0 min 0 W/m 12,9 km/h (3 Bft) 97,87 %
17.01.2023 06:30 1,3 C 0,6 C -1,7 C 96 % 987,4 hPa 0,0 l/m 0 min 0 min 0 W/m 6,4 km/h (2 Bft) 93,48 %
17.01.2023 06:32 1,2 C 0,6 C -1,7 C 96 % 987,5 hPa 0,0 l/m 0 min 0 min 0 W/m 9,7 km/h (2 Bft) 95,74 %
17.01.2023 06:34 1,2 C 0,6 C -1,7 C 96 % 987,5 hPa 0,0 l/m 0 min 0 min 0 W/m 6,4 km/h (2 Bft) 97,87 %
17.01.2023 06:36 1,2 C 0,6 C -1,7 C 96 % 987,5 hPa 0,0 l/m 0 min 0 min 0 W/m 6,4 km/h (2 Bft) 97,87 %
17.01.2023 06:38 1,2 C 0,6 C -1,7 C 95 % 987,6 hPa 0,0 l/m 0 min 0 min 0 W/m 6,4 km/h (2 Bft) 97,87 %
17.01.2023 06:40 1,2 C 0,6 C -1,7 C 95 % 987,6 hPa 0,0 l/m 0 min 0 min 0 W/m 12,9 km/h (3 Bft) 97,87 %
17.01.2023 06:42 1,2 C 0,6 C -1,7 C 95 % 987,6 hPa 0,0 l/m 0 min 0 min 0 W/m 19,3 km/h (3 Bft) 89,13 %
17.01.2023 06:44 1,2 C 0,6 C -1,7 C 95 % 987,6 hPa 0,0 l/m 0 min 0 min 0 W/m 9,7 km/h (2 Bft) 93,62 %
17.01.2023 06:46 1,2 C 0,6 C -1,7 C 95 % 987,6 hPa 0,0 l/m 0 min 0 min 0 W/m 6,4 km/h (2 Bft) 85,11 %
17.01.2023 06:48 1,1 C 0,6 C -1,7 C 95 % 987,6 hPa 0,0 l/m 0 min 0 min 0 W/m 6,4 km/h (2 Bft) 97,87 %
17.01.2023 06:50 1,1 C 0,6 C -1,7 C 96 % 987,6 hPa 0,0 l/m 0 min 0 min 0 W/m 6,4 km/h (2 Bft) 68,09 %
17.01.2023 06:52 1,1 C 0,6 C -1,7 C 96 % 987,6 hPa 0,0 l/m 0 min 0 min 0 W/m 6,4 km/h (2 Bft) 57,45 %
17.01.2023 06:54 1,1 C 0,6 C -1,7 C 96 % 987,7 hPa 0,0 l/m 0 min 0 min 0 W/m 6,4 km/h (2 Bft) 55,32 %
17.01.2023 06:56 1,1 C 0,6 C -1,7 C 96 % 987,7 hPa 0,0 l/m 0 min 0 min 0 W/m 6,4 km/h (2 Bft) 17,39 %
17.01.2023 06:58 1,1 C 0,6 C -1,7 C 96 % 987,6 hPa 0,0 l/m 0 min 0 min 0 W/m 3,2 km/h (1 Bft) 8,33 %
17.01.2023 07:00 1,1 C 0,6 C -1,7 C 96 % 987,7 hPa 0,0 l/m 0 min 0 min 0 W/m 0,0 km/h (0 Bft) 90,50 %
17.01.2023 07:02 1,1 C 0,6 C -1,7 C 96 % 987,7 hPa 0,0 l/m 0 min 0 min 0 W/m 0,0 km/h (0 Bft) 90,50 %
17.01.2023 07:04 1,1 C 0,6 C -1,7 C 96 % 987,8 hPa 0,0 l/m 0 min 0 min 0 W/m 0,0 km/h (0 Bft) 90,50 %
17.01.2023 07:06 1,1 C 0,6 C -1,7 C 96 % 987,7 hPa 0,0 l/m 0 min 0 min 0 W/m 6,4 km/h (2 Bft) 20,00 %
17.01.2023 07:08 1,1 C 0,6 C -1,7 C 96 % 987,8 hPa 0,0 l/m 0 min 0 min 0 W/m 3,2 km/h (1 Bft) 15,22 %
17.01.2023 07:10 1,1 C 0,6 C -1,7 C 96 % 987,7 hPa 0,0 l/m 0 min 0 min 0 W/m 6,4 km/h (2 Bft) 6,38 %
17.01.2023 07:12 1,1 C 0,6 C -1,7 C 96 % 987,7 hPa 0,0 l/m 0 min 0 min 0 W/m 3,2 km/h (1 Bft) 31,91 %
17.01.2023 07:14 1,1 C 0,6 C -1,7 C 96 % 987,7 hPa 0,0 l/m 0 min 0 min 0 W/m 6,4 km/h (2 Bft) 68,09 %
17.01.2023 07:16 1,1 C 0,6 C -1,7 C 96 % 987,7 hPa 0,0 l/m 0 min 0 min 0 W/m 12,9 km/h (3 Bft) 78,72 %
17.01.2023 07:18 1,1 C 0,6 C -1,7 C 96 % 987,8 hPa 0,0 l/m 0 min 0 min 0 W/m 6,4 km/h (2 Bft) 80,85 %
17.01.2023 07:20 1,1 C 0,6 C -1,7 C 96 % 987,8 hPa 0,0 l/m 0 min 0 min 0 W/m 3,2 km/h (1 Bft) 87,23 %
17.01.2023 07:22 1,1 C 0,6 C -1,7 C 96 % 987,8 hPa 0,0 l/m 0 min 0 min 0 W/m 6,4 km/h (2 Bft) 89,13 %
17.01.2023 07:24 1,1 C 0,6 C -1,7 C 96 % 987,8 hPa 0,0 l/m 0 min 0 min 0 W/m 3,2 km/h (1 Bft) 87,23 %
17.01.2023 07:26 1,1 C 0,6 C -1,7 C 96 % 987,8 hPa 0,0 l/m 0 min 0 min 0 W/m 9,7 km/h (2 Bft) 80,85 %
17.01.2023 07:28 1,1 C 0,6 C -1,7 C 96 % 987,8 hPa 0,0 l/m 0 min 0 min 0 W/m 12,9 km/h (3 Bft) 85,11 %
17.01.2023 07:30 1,1 C 0,6 C -1,7 C 96 % 987,9 hPa 0,0 l/m 0 min 0 min 0 W/m 3,2 km/h (1 Bft) 95,74 %
17.01.2023 07:32 1,1 C 0,6 C -1,7 C 96 % 987,9 hPa 0,0 l/m 0 min 0 min 0 W/m 9,7 km/h (2 Bft) 89,36 %
17.01.2023 07:34 1,1 C 0,6 C -1,7 C 96 % 987,9 hPa 0,0 l/m 0 min 0 min 0 W/m 6,4 km/h (2 Bft) 91,49 %
17.01.2023 07:36 1,1 C 0,6 C -1,7 C 96 % 987,9 hPa 0,0 l/m 0 min 0 min 0 W/m 3,2 km/h (1 Bft) 93,48 %
17.01.2023 07:38 1,1 C 0,6 C -1,7 C 96 % 987,9 hPa 0,0 l/m 0 min 0 min 0 W/m 3,2 km/h (1 Bft) 95,74 %
17.01.2023 07:40 1,0 C 0,6 C -1,7 C 96 % 987,9 hPa 0,0 l/m 0 min 0 min 0 W/m 6,4 km/h (2 Bft) 76,60 %
17.01.2023 07:42 1,0 C 0,0 C -1,7 C 96 % 988,0 hPa 0,0 l/m 0 min 0 min 0 W/m 12,9 km/h (3 Bft) 67,44 %
17.01.2023 07:44 0,9 C 0,0 C -1,7 C 96 % 988,0 hPa 0,0 l/m 0 min 0 min 0 W/m 6,4 km/h (2 Bft) 93,62 %
17.01.2023 07:46 0,9 C 0,0 C -1,7 C 96 % 988,0 hPa 0,0 l/m 0 min 0 min 0 W/m 6,4 km/h (2 Bft) 89,36 %
17.01.2023 07:48 0,9 C 0,0 C -1,7 C 96 % 988,0 hPa 0,0 l/m 0 min 0 min 0 W/m 3,2 km/h (1 Bft) 91,49 %
17.01.2023 07:50 0,9 C 0,0 C -1,7 C 96 % 988,0 hPa 0,0 l/m 0 min 0 min 0 W/m 6,4 km/h (2 Bft) 89,13 %
17.01.2023 07:52 0,9 C 0,0 C -1,7 C 96 % 988,0 hPa 0,0 l/m 0 min 0 min 0 W/m 3,2 km/h (1 Bft) 93,62 %
17.01.2023 07:54 0,8 C 0,0 C -1,7 C 96 % 988,0 hPa 0,0 l/m 0 min 0 min 0 W/m 6,4 km/h (2 Bft) 93,62 %
17.01.2023 07:56 0,8 C 0,0 C -1,7 C 96 % 988,0 hPa 0,0 l/m 0 min 0 min 0 W/m 6,4 km/h (2 Bft) 93,62 %
17.01.2023 07:58 0,8 C 0,0 C -2,2 C 96 % 988,0 hPa 0,0 l/m 0 min 0 min 0 W/m 6,4 km/h (2 Bft) 92,86 %
17.01.2023 08:00 0,8 C 0,0 C -1,7 C 96 % 988,0 hPa 0,0 l/m 0 min 0 min 0 W/m 3,2 km/h (1 Bft) 91,49 %
17.01.2023 08:02 0,8 C 0,0 C -1,7 C 96 % 988,0 hPa 0,0 l/m 0 min 0 min 0 W/m 3,2 km/h (1 Bft) 93,48 %
17.01.2023 08:04 0,7 C 0,0 C -2,2 C 96 % 988,0 hPa 0,0 l/m 0 min 0 min 0 W/m 0,0 km/h (0 Bft) 93,62 %
17.01.2023 08:06 0,7 C 0,0 C -2,2 C 96 % 988,0 hPa 0,0 l/m 0 min 0 min 0 W/m 6,4 km/h (2 Bft) 95,74 %
17.01.2023 08:08 0,7 C 0,0 C -2,2 C 96 % 988,1 hPa 0,0 l/m 0 min 0 min 0 W/m 6,4 km/h (2 Bft) 95,74 %
17.01.2023 08:10 0,6 C 0,0 C -2,2 C 96 % 988,0 hPa 0,0 l/m 0 min 0 min 0 W/m 3,2 km/h (1 Bft) 93,62 %
17.01.2023 08:12 0,6 C -0,6 C -2,2 C 96 % 988,1 hPa 0,0 l/m 0 min 0 min 0 W/m 3,2 km/h (1 Bft) 95,74 %
17.01.2023 08:14 0,6 C 0,0 C -2,2 C 96 % 988,1 hPa 0,0 l/m 0 min 0 min 0 W/m 6,4 km/h (2 Bft) 97,87 %
17.01.2023 08:16 0,6 C 0,0 C -2,2 C 96 % 988,1 hPa 0,0 l/m 0 min 0 min 0 W/m 3,2 km/h (1 Bft) 97,83 %
17.01.2023 08:18 0,6 C -0,6 C -2,2 C 96 % 988,1 hPa 0,0 l/m 0 min 0 min 0 W/m 3,2 km/h (1 Bft) 100,00 %
17.01.2023 08:20 0,6 C -0,6 C -2,2 C 96 % 988,1 hPa 0,0 l/m 0 min 0 min 0 W/m 0,0 km/h (0 Bft) 100,00 %
17.01.2023 08:22 0,6 C -0,6 C -2,2 C 96 % 988,1 hPa 0,0 l/m 0 min 0 min 0 W/m 3,2 km/h (1 Bft) 97,87 %
17.01.2023 08:24 0,6 C -0,6 C -2,2 C 96 % 988,1 hPa 0,0 l/m 0 min 0 min 0 W/m 0,0 km/h (0 Bft) 95,74 %
17.01.2023 08:26 0,6 C -0,6 C -2,2 C 96 % 988,1 hPa 0,0 l/m 0 min 0 min 0 W/m 3,2 km/h (1 Bft) 50,00 %
17.01.2023 08:28 0,5 C -0,6 C -2,2 C 96 % 988,1 hPa 0,0 l/m 0 min 0 min 0 W/m 3,2 km/h (1 Bft) 97,87 %
17.01.2023 08:30 0,5 C -0,6 C -2,2 C 95 % 988,1 hPa 0,0 l/m 0 min 0 min 0 W/m 3,2 km/h (1 Bft) 97,87 %
17.01.2023 08:32 0,4 C -0,6 C -2,2 C 95 % 988,1 hPa 0,0 l/m 0 min 0 min 0 W/m 3,2 km/h (1 Bft) 100,00 %
17.01.2023 08:34 0,4 C -0,6 C -2,2 C 95 % 988,1 hPa 0,0 l/m 0 min 0 min 5 W/m 3,2 km/h (1 Bft) 97,87 %
17.01.2023 08:36 0,4 C -0,6 C -2,2 C 95 % 988,1 hPa 0,0 l/m 0 min 0 min 5 W/m 6,4 km/h (2 Bft) 97,87 %
17.01.2023 08:38 0,4 C -0,6 C -2,2 C 95 % 988,1 hPa 0,0 l/m 0 min 0 min 5 W/m 6,4 km/h (2 Bft) 100,00 %
17.01.2023 08:40 0,3 C -0,6 C -2,2 C 95 % 988,1 hPa 0,0 l/m 0 min 0 min 6 W/m 6,4 km/h (2 Bft) 95,74 %
17.01.2023 08:42 0,3 C -0,6 C -2,2 C 96 % 988,1 hPa 0,0 l/m 0 min 0 min 7 W/m 3,2 km/h (1 Bft) 100,00 %
17.01.2023 08:44 0,3 C -0,6 C -2,2 C 96 % 988,1 hPa 0,0 l/m 0 min 0 min 7 W/m 3,2 km/h (1 Bft) 100,00 %
17.01.2023 08:46 0,3 C -0,6 C -2,2 C 96 % 988,1 hPa 0,0 l/m 0 min 0 min 9 W/m 0,0 km/h (0 Bft) 97,87 %
17.01.2023 08:48 0,3 C -0,6 C -2,2 C 96 % 988,1 hPa 0,0 l/m 0 min 0 min 9 W/m 0,0 km/h (0 Bft) 100,00 %
17.01.2023 08:50 0,3 C -0,6 C -2,2 C 96 % 988,1 hPa 0,0 l/m 0 min 0 min 11 W/m 3,2 km/h (1 Bft) 100,00 %
17.01.2023 08:52 0,3 C -0,6 C -2,2 C 96 % 988,1 hPa 0,0 l/m 0 min 0 min 11 W/m 3,2 km/h (1 Bft) 100,00 %
17.01.2023 08:54 0,2 C -0,6 C -2,2 C 96 % 988,1 hPa 0,0 l/m 0 min 0 min 11 W/m 3,2 km/h (1 Bft) 97,87 %
17.01.2023 08:56 0,2 C -0,6 C -2,2 C 96 % 988,1 hPa 0,0 l/m 0 min 0 min 11 W/m 3,2 km/h (1 Bft) 95,74 %
17.01.2023 08:58 0,2 C -0,6 C -2,2 C 96 % 988,1 hPa 0,0 l/m 0 min 0 min 13 W/m 3,2 km/h (1 Bft) 97,83 %
17.01.2023 09:00 0,2 C -0,6 C -2,2 C 96 % 988,1 hPa 0,0 l/m 0 min 0 min 15 W/m 3,2 km/h (1 Bft) 100,00 %
17.01.2023 09:02 0,2 C -0,6 C -2,2 C 96 % 988,1 hPa 0,0 l/m 0 min 0 min 19 W/m 3,2 km/h (1 Bft) 100,00 %
17.01.2023 09:04 0,2 C -0,6 C -2,2 C 96 % 988,1 hPa 0,0 l/m 0 min 0 min 23 W/m 6,4 km/h (2 Bft) 100,00 %
17.01.2023 09:06 0,2 C -0,6 C -2,2 C 96 % 988,1 hPa 0,0 l/m 0 min 0 min 25 W/m 0,0 km/h (0 Bft) 100,00 %
17.01.2023 09:08 0,2 C -0,6 C -2,2 C 96 % 988,1 hPa 0,0 l/m 0 min 0 min 26 W/m 0,0 km/h (0 Bft) 100,00 %
17.01.2023 09:10 0,2 C 0,0 C -2,2 C 96 % 988,1 hPa 0,0 l/m 0 min 0 min 27 W/m 0,0 km/h (0 Bft) 95,74 %
17.01.2023 09:12 0,2 C 0,0 C -2,2 C 96 % 988,2 hPa 0,0 l/m 0 min 0 min 28 W/m 3,2 km/h (1 Bft) 97,83 %
17.01.2023 09:14 0,2 C 0,0 C -2,2 C 96 % 988,2 hPa 0,0 l/m 0 min 0 min 27 W/m 0,0 km/h (0 Bft) 95,74 %
17.01.2023 09:16 0,2 C 0,0 C -2,2 C 96 % 988,2 hPa 0,0 l/m 0 min 0 min 29 W/m 0,0 km/h (0 Bft) 100,00 %
17.01.2023 09:18 0,2 C 0,0 C -2,2 C 96 % 988,2 hPa 0,0 l/m 0 min 0 min 31 W/m 0,0 km/h (0 Bft) 97,87 %
17.01.2023 09:20 0,2 C 0,0 C -2,2 C 96 % 988,2 hPa 0,0 l/m 0 min 0 min 33 W/m 3,2 km/h (1 Bft) 97,87 %
17.01.2023 09:22 0,2 C 0,0 C -2,2 C 96 % 988,2 hPa 0,0 l/m 0 min 0 min 36 W/m 3,2 km/h (1 Bft) 97,87 %
17.01.2023 09:24 0,2 C 0,0 C -2,2 C 96 % 988,2 hPa 0,0 l/m 0 min 0 min 39 W/m 6,4 km/h (2 Bft) 97,83 %
17.01.2023 09:26 0,3 C 0,0 C -2,2 C 96 % 988,3 hPa 0,0 l/m 0 min 0 min 45 W/m 9,7 km/h (2 Bft) 95,74 %
17.01.2023 09:28 0,3 C 0,0 C -2,2 C 96 % 988,3 hPa 0,0 l/m 0 min 0 min 51 W/m 6,4 km/h (2 Bft) 95,74 %
17.01.2023 09:30 0,3 C 0,6 C -2,2 C 96 % 988,3 hPa 0,0 l/m 0 min 0 min 60 W/m 3,2 km/h (1 Bft) 95,74 %
17.01.2023 09:32 0,3 C 0,6 C -1,7 C 96 % 988,3 hPa 0,0 l/m 2 min 0 min 67 W/m 0,0 km/h (0 Bft) 97,87 %
17.01.2023 09:34 0,4 C 0,6 C -1,7 C 96 % 988,2 hPa 0,0 l/m 2 min 0 min 70 W/m 6,4 km/h (2 Bft) 93,62 %
17.01.2023 09:36 0,4 C 0,6 C -1,7 C 96 % 988,2 hPa 0,0 l/m 0 min 0 min 68 W/m 6,4 km/h (2 Bft) 95,74 %
17.01.2023 09:38 0,4 C 1,1 C -1,7 C 96 % 988,3 hPa 0,0 l/m 0 min 0 min 64 W/m 3,2 km/h (1 Bft) 96,30 %
17.01.2023 09:40 0,5 C 1,1 C -1,7 C 96 % 988,3 hPa 0,0 l/m 0 min 0 min 61 W/m 6,4 km/h (2 Bft) 97,83 %
17.01.2023 09:42 0,6 C 1,1 C -1,7 C 96 % 988,3 hPa 0,0 l/m 0 min 0 min 59 W/m 6,4 km/h (2 Bft) 93,62 %
17.01.2023 09:44 0,6 C 1,1 C -1,7 C 96 % 988,2 hPa 0,0 l/m 0 min 0 min 54 W/m 6,4 km/h (2 Bft) 95,74 %
17.01.2023 09:46 0,6 C 1,1 C -1,7 C 96 % 988,2 hPa 0,0 l/m 0 min 0 min 51 W/m 16,1 km/h (3 Bft) 97,87 %
17.01.2023 09:48 0,6 C 1,1 C -1,7 C 96 % 988,3 hPa 0,0 l/m 0 min 0 min 51 W/m 12,9 km/h (3 Bft) 97,87 %
17.01.2023 09:50 0,6 C 1,1 C -1,7 C 96 % 988,4 hPa 0,0 l/m 0 min 0 min 49 W/m 6,4 km/h (2 Bft) 97,87 %
17.01.2023 09:52 0,6 C 1,1 C -1,7 C 96 % 988,3 hPa 0,0 l/m 0 min 0 min 54 W/m 12,9 km/h (3 Bft) 97,87 %
17.01.2023 09:54 0,6 C 1,1 C -1,7 C 96 % 988,4 hPa 0,0 l/m 0 min 0 min 59 W/m 0,0 km/h (0 Bft) 97,83 %
17.01.2023 09:56 0,6 C 1,1 C -1,7 C 96 % 988,4 hPa 0,0 l/m 0 min 0 min 75 W/m 3,2 km/h (1 Bft) 97,87 %
17.01.2023 09:58 0,6 C 1,1 C -1,7 C 96 % 988,4 hPa 0,0 l/m 2 min 0 min 102 W/m 3,2 km/h (1 Bft) 97,87 %
17.01.2023 10:00 0,7 C 1,1 C -1,7 C 96 % 988,4 hPa 0,0 l/m 2 min 0 min 117 W/m 9,7 km/h (2 Bft) 91,49 %
17.01.2023 10:02 0,7 C 1,1 C -1,7 C 96 % 988,4 hPa 0,0 l/m 2 min 0 min 142 W/m 3,2 km/h (1 Bft) 97,87 %
17.01.2023 10:04 0,7 C 1,1 C -1,7 C 96 % 988,4 hPa 0,0 l/m 2 min 0 min 155 W/m 3,2 km/h (1 Bft) 100,00 %
17.01.2023 10:06 0,8 C 1,1 C -1,7 C 96 % 988,3 hPa 0,0 l/m 2 min 0 min 142 W/m 6,4 km/h (2 Bft) 96,61 %
17.01.2023 10:08 0,8 C 1,1 C -1,7 C 96 % 988,3 hPa 0,0 l/m 2 min 0 min 117 W/m 12,9 km/h (3 Bft) 97,14 %
17.01.2023 10:10 0,8 C 1,1 C -1,7 C 96 % 988,3 hPa 0,0 l/m 2 min 0 min 110 W/m 6,4 km/h (2 Bft) 93,48 %
17.01.2023 10:12 0,8 C 1,1 C -1,7 C 96 % 988,3 hPa 0,2 l/m 0 min 0 min 79 W/m 6,4 km/h (2 Bft) 95,74 %
17.01.2023 10:14 0,9 C 1,1 C -1,7 C 96 % 988,4 hPa 0,0 l/m 2 min 0 min 130 W/m 6,4 km/h (2 Bft) 93,62 %
17.01.2023 10:16 0,9 C 1,1 C -1,7 C 96 % 988,4 hPa 0,0 l/m 2 min 0 min 183 W/m 9,7 km/h (2 Bft) 97,87 %
17.01.2023 10:18 0,9 C 1,1 C -1,7 C 96 % 988,4 hPa 0,0 l/m 2 min 0 min 190 W/m 6,4 km/h (2 Bft) 95,74 %
17.01.2023 10:20 0,9 C 1,1 C -1,7 C 96 % 988,4 hPa 0,0 l/m 2 min 0 min 178 W/m 6,4 km/h (2 Bft) 97,87 %
17.01.2023 10:22 1,0 C 1,1 C -1,7 C 95 % 988,4 hPa 0,0 l/m 2 min 0 min 183 W/m 6,4 km/h (2 Bft) 97,87 %
17.01.2023 10:24 1,0 C 1,1 C -1,7 C 95 % 988,4 hPa 0,0 l/m 2 min 0 min 190 W/m 6,4 km/h (2 Bft) 97,87 %
17.01.2023 10:26 1,0 C 1,1 C -1,7 C 95 % 988,4 hPa 0,0 l/m 2 min 0 min 203 W/m 12,9 km/h (3 Bft) 97,83 %
17.01.2023 10:28 1,1 C 1,1 C -1,7 C 95 % 988,4 hPa 0,0 l/m 2 min 0 min 203 W/m 3,2 km/h (1 Bft) 95,74 %
17.01.2023 10:30 1,1 C 1,1 C -1,7 C 95 % 988,4 hPa 0,0 l/m 2 min 0 min 172 W/m 6,4 km/h (2 Bft) 95,74 %
17.01.2023 10:32 1,1 C 1,7 C -1,7 C 95 % 988,4 hPa 0,0 l/m 2 min 0 min 194 W/m 6,4 km/h (2 Bft) 93,62 %
17.01.2023 10:34 1,2 C 1,7 C -1,7 C 95 % 988,4 hPa 0,0 l/m 2 min 0 min 210 W/m 6,4 km/h (2 Bft) 95,74 %
17.01.2023 10:36 1,2 C 1,7 C -1,7 C 95 % 988,4 hPa 0,0 l/m 2 min 0 min 199 W/m 6,4 km/h (2 Bft) 93,62 %
17.01.2023 10:38 1,2 C 1,1 C -1,7 C 95 % 988,4 hPa 0,0 l/m 2 min 0 min 143 W/m 9,7 km/h (2 Bft) 91,30 %
17.01.2023 10:40 1,3 C 1,1 C -1,7 C 95 % 988,3 hPa 0,0 l/m 2 min 0 min 163 W/m 6,4 km/h (2 Bft) 95,74 %
17.01.2023 10:42 1,3 C 1,1 C -1,7 C 95 % 988,4 hPa 0,0 l/m 2 min 0 min 207 W/m 6,4 km/h (2 Bft) 95,74 %
17.01.2023 10:44 1,3 C 1,7 C -1,7 C 95 % 988,4 hPa 0,0 l/m 2 min 0 min 230 W/m 6,4 km/h (2 Bft) 95,74 %
17.01.2023 10:46 1,4 C 1,7 C -1,7 C 95 % 988,4 hPa 0,0 l/m 2 min 0 min 227 W/m 12,9 km/h (3 Bft) 93,62 %
17.01.2023 10:48 1,5 C 1,7 C -1,7 C 95 % 988,5 hPa 0,0 l/m 2 min 0 min 233 W/m 6,4 km/h (2 Bft) 95,74 %
17.01.2023 10:50 1,6 C 1,7 C -1,7 C 95 % 988,5 hPa 0,0 l/m 2 min 0 min 239 W/m 6,4 km/h (2 Bft) 95,74 %
17.01.2023 10:52 1,6 C 1,7 C -1,7 C 95 % 988,5 hPa 0,0 l/m 2 min 0 min 243 W/m 3,2 km/h (1 Bft) 95,74 %
17.01.2023 10:54 1,7 C 1,7 C -1,7 C 95 % 988,4 hPa 0,0 l/m 2 min 0 min 248 W/m 16,1 km/h (3 Bft) 95,65 %
17.01.2023 10:56 1,8 C 1,7 C -1,7 C 95 % 988,4 hPa 0,0 l/m 2 min 0 min 251 W/m 6,4 km/h (2 Bft) 95,74 %
17.01.2023 10:58 1,8 C 1,7 C -1,7 C 95 % 988,5 hPa 0,0 l/m 2 min 0 min 256 W/m 12,9 km/h (3 Bft) 97,87 %
17.01.2023 11:00 1,9 C 2,2 C -1,7 C 95 % 988,5 hPa 0,0 l/m 2 min 0 min 263 W/m 6,4 km/h (2 Bft) 97,87 %
17.01.2023 11:02 2,0 C 2,2 C -1,1 C 94 % 988,5 hPa 0,0 l/m 2 min 0 min 268 W/m 9,7 km/h (2 Bft) 95,74 %
17.01.2023 11:04 2,1 C 2,2 C -1,1 C 94 % 988,6 hPa 0,0 l/m 2 min 0 min 273 W/m 6,4 km/h (2 Bft) 95,92 %
17.01.2023 11:06 2,2 C 2,2 C -1,1 C 94 % 988,6 hPa 0,0 l/m 2 min 0 min 278 W/m 6,4 km/h (2 Bft) 95,74 %
17.01.2023 11:08 2,3 C 2,8 C -1,1 C 94 % 988,6 hPa 0,0 l/m 2 min 0 min 281 W/m 6,4 km/h (2 Bft) 97,87 %
17.01.2023 11:10 2,4 C 2,8 C -1,1 C 94 % 988,5 hPa 0,0 l/m 2 min 0 min 283 W/m 6,4 km/h (2 Bft) 97,87 %
17.01.2023 11:12 2,5 C 2,8 C -1,1 C 94 % 988,6 hPa 0,0 l/m 2 min 0 min 284 W/m 3,2 km/h (1 Bft) 97,87 %
17.01.2023 11:14 2,6 C 2,8 C -1,1 C 93 % 988,5 hPa 0,0 l/m 2 min 0 min 278 W/m 12,9 km/h (3 Bft) 97,83 %
17.01.2023 11:16 2,6 C 2,8 C -1,1 C 93 % 988,5 hPa 0,0 l/m 2 min 0 min 272 W/m 6,4 km/h (2 Bft) 97,87 %
17.01.2023 11:18 2,7 C 3,3 C -1,1 C 93 % 988,5 hPa 0,0 l/m 2 min 0 min 276 W/m 6,4 km/h (2 Bft) 97,87 %
17.01.2023 11:20 2,7 C 3,3 C -1,1 C 92 % 988,6 hPa 0,0 l/m 2 min 0 min 260 W/m 12,9 km/h (3 Bft) 97,87 %
17.01.2023 11:22 2,7 C 3,3 C -1,1 C 92 % 988,6 hPa 0,0 l/m 2 min 0 min 252 W/m 9,7 km/h (2 Bft) 97,87 %
17.01.2023 11:24 2,8 C 4,4 C -1,1 C 92 % 988,6 hPa 0,0 l/m 2 min 0 min 238 W/m 3,2 km/h (1 Bft) 97,87 %
17.01.2023 11:26 2,8 C 5,0 C -1,1 C 91 % 988,7 hPa 0,0 l/m 2 min 0 min 261 W/m 6,4 km/h (2 Bft) 97,87 %
17.01.2023 11:28 2,9 C 5,0 C -1,1 C 91 % 988,6 hPa 0,0 l/m 2 min 0 min 277 W/m 9,7 km/h (2 Bft) 97,83 %
17.01.2023 11:30 2,9 C 5,0 C -1,1 C 91 % 988,7 hPa 0,0 l/m 2 min 0 min 252 W/m 3,2 km/h (1 Bft) 97,87 %
17.01.2023 11:32 3,0 C 6,1 C -1,1 C 91 % 988,7 hPa 0,0 l/m 2 min 0 min 202 W/m 9,7 km/h (2 Bft) 95,74 %
17.01.2023 11:34 3,1 C 6,7 C -1,1 C 90 % 988,7 hPa 0,0 l/m 2 min 0 min 203 W/m 6,4 km/h (2 Bft) 97,87 %
17.01.2023 11:36 3,1 C 6,7 C -1,1 C 90 % 988,8 hPa 0,0 l/m 2 min 0 min 161 W/m 6,4 km/h (2 Bft) 93,62 %
17.01.2023 11:38 3,1 C 6,1 C -0,6 C 90 % 988,8 hPa 0,0 l/m 0 min 0 min 96 W/m 9,7 km/h (2 Bft) 93,62 %
17.01.2023 11:40 3,1 C 5,6 C -0,6 C 89 % 988,6 hPa 0,0 l/m 0 min 0 min 117 W/m 6,4 km/h (2 Bft) 97,87 %
17.01.2023 11:42 3,1 C 5,6 C -0,6 C 89 % 988,7 hPa 0,0 l/m 2 min 0 min 191 W/m 3,2 km/h (1 Bft) 95,65 %
17.01.2023 11:44 3,1 C 5,6 C -0,6 C 89 % 988,7 hPa 0,0 l/m 0 min 0 min 142 W/m 6,4 km/h (2 Bft) 100,00 %
17.01.2023 11:46 3,1 C 5,6 C -0,6 C 89 % 988,6 hPa 0,0 l/m 0 min 0 min 140 W/m 3,2 km/h (1 Bft) 100,00 %
17.01.2023 11:48 3,2 C 5,6 C -0,6 C 89 % 988,6 hPa 0,0 l/m 0 min 0 min 106 W/m 6,4 km/h (2 Bft) 97,87 %
17.01.2023 11:50 3,2 C 5,0 C -0,6 C 89 % 988,7 hPa 0,0 l/m 0 min 0 min 160 W/m 12,9 km/h (3 Bft) 97,87 %
17.01.2023 11:52 3,1 C 5,0 C -0,6 C 88 % 988,6 hPa 0,0 l/m 0 min 0 min 160 W/m 3,2 km/h (1 Bft) 97,87 %
17.01.2023 11:54 3,1 C 4,4 C -0,6 C 88 % 988,6 hPa 0,0 l/m 0 min 0 min 160 W/m 6,4 km/h (2 Bft) 97,87 %
17.01.2023 11:56 3,1 C 4,4 C -0,6 C 88 % 988,6 hPa 0,0 l/m 2 min 0 min 187 W/m 3,2 km/h (1 Bft) 50,00 %
17.01.2023 11:58 3,1 C 4,4 C -0,6 C 88 % 988,6 hPa 0,0 l/m 0 min 0 min 89 W/m 6,4 km/h (2 Bft) 97,87 %
17.01.2023 12:00 3,1 C 5,0 C -0,6 C 87 % 988,5 hPa 0,0 l/m 0 min 0 min 62 W/m 6,4 km/h (2 Bft) 95,74 %
17.01.2023 12:02 3,1 C 5,6 C -0,6 C 87 % 988,5 hPa 0,0 l/m 0 min 0 min 63 W/m 6,4 km/h (2 Bft) 97,87 %
17.01.2023 12:04 3,1 C 5,0 C -0,6 C 87 % 988,5 hPa 0,0 l/m 0 min 0 min 66 W/m 3,2 km/h (1 Bft) 97,87 %
17.01.2023 12:07 3,2 C 4,4 C 0,0 C 88 % 988,5 hPa 0,0 l/m 0 min 0 min 88 W/m 6,4 km/h (2 Bft) 97,14 %
17.01.2023 12:08 3,2 C 4,4 C 0,0 C 88 % 988,5 hPa 0,0 l/m 0 min 0 min 72 W/m 6,4 km/h (2 Bft) 95,65 %
17.01.2023 12:12 3,2 C 4,4 C 0,0 C 87 % 988,3 hPa 0,0 l/m 0 min 0 min 162 W/m 3,2 km/h (1 Bft) 94,44 %
17.01.2023 12:14 3,2 C 5,0 C 0,0 C 87 % 988,3 hPa 0,0 l/m 0 min 0 min 117 W/m 6,4 km/h (2 Bft) 100,00 %
17.01.2023 12:16 3,3 C 5,0 C 0,0 C 87 % 988,2 hPa 0,0 l/m 2 min 0 min 265 W/m 3,2 km/h (1 Bft) 93,62 %
17.01.2023 12:18 3,3 C 5,0 C 0,0 C 87 % 988,3 hPa 0,0 l/m 2 min 0 min 242 W/m 3,2 km/h (1 Bft) 95,65 %
17.01.2023 12:20 3,3 C 5,0 C 0,0 C 86 % 988,3 hPa 0,0 l/m 0 min 0 min 111 W/m 6,4 km/h (2 Bft) 95,74 %
17.01.2023 12:22 3,3 C 5,6 C 0,0 C 86 % 988,3 hPa 0,0 l/m 0 min 0 min 69 W/m 6,4 km/h (2 Bft) 97,87 %
17.01.2023 12:24 3,4 C 6,7 C 0,0 C 86 % 988,3 hPa 0,0 l/m 0 min 0 min 88 W/m 3,2 km/h (1 Bft) 95,74 %
17.01.2023 12:26 3,4 C 6,7 C 0,0 C 86 % 988,3 hPa 0,0 l/m 0 min 0 min 121 W/m 6,4 km/h (2 Bft) 97,87 %
17.01.2023 12:28 3,4 C 6,7 C 0,0 C 85 % 988,3 hPa 0,0 l/m 0 min 0 min 97 W/m 6,4 km/h (2 Bft) 95,74 %
17.01.2023 12:30 3,4 C 6,7 C 0,0 C 85 % 988,3 hPa 0,0 l/m 0 min 0 min 78 W/m 3,2 km/h (1 Bft) 97,87 %
17.01.2023 12:32 3,4 C 6,7 C 0,0 C 85 % 988,3 hPa 0,0 l/m 0 min 0 min 114 W/m 3,2 km/h (1 Bft) 95,65 %
17.01.2023 12:34 3,5 C 6,7 C 0,0 C 85 % 988,3 hPa 0,0 l/m 0 min 0 min 110 W/m 6,4 km/h (2 Bft) 95,74 %
17.01.2023 12:36 3,6 C 6,1 C 0,0 C 85 % 988,3 hPa 0,0 l/m 0 min 0 min 127 W/m 6,4 km/h (2 Bft) 95,74 %
17.01.2023 12:38 3,6 C 6,7 C 0,0 C 85 % 988,2 hPa 0,0 l/m 0 min 0 min 124 W/m 3,2 km/h (1 Bft) 91,49 %
17.01.2023 12:40 3,6 C 6,7 C 0,0 C 85 % 988,2 hPa 0,0 l/m 2 min 0 min 191 W/m 3,2 km/h (1 Bft) 95,74 %
17.01.2023 12:42 3,7 C 7,2 C 0,6 C 85 % 988,3 hPa 0,0 l/m 2 min 0 min 244 W/m 3,2 km/h (1 Bft) 93,62 %
17.01.2023 12:44 3,7 C 7,2 C 0,6 C 85 % 988,3 hPa 0,0 l/m 2 min 0 min 204 W/m 3,2 km/h (1 Bft) 95,74 %
17.01.2023 12:46 3,8 C 7,2 C 0,6 C 84 % 988,3 hPa 0,0 l/m 2 min 0 min 213 W/m 9,7 km/h (2 Bft) 93,48 %
17.01.2023 12:48 3,8 C 7,2 C 0,6 C 84 % 988,3 hPa 0,0 l/m 2 min 0 min 225 W/m 6,4 km/h (2 Bft) 95,74 %
17.01.2023 12:50 3,9 C 7,8 C 0,6 C 84 % 988,2 hPa 0,0 l/m 2 min 0 min 227 W/m 9,7 km/h (2 Bft) 97,87 %
17.01.2023 12:52 3,9 C 8,3 C 0,6 C 84 % 988,2 hPa 0,0 l/m 2 min 0 min 219 W/m 9,7 km/h (2 Bft) 95,74 %
17.01.2023 12:54 4,0 C 8,3 C 0,6 C 84 % 988,2 hPa 0,0 l/m 2 min 0 min 259 W/m 9,7 km/h (2 Bft) 95,74 %
17.01.2023 12:56 4,1 C 8,3 C 0,6 C 83 % 988,2 hPa 0,0 l/m 2 min 0 min 252 W/m 6,4 km/h (2 Bft) 93,62 %
17.01.2023 12:58 4,1 C 8,9 C 1,1 C 83 % 988,2 hPa 0,0 l/m 2 min 0 min 290 W/m 3,2 km/h (1 Bft) 93,48 %
17.01.2023 13:00 4,2 C 8,9 C 1,1 C 83 % 988,2 hPa 0,0 l/m 2 min 0 min 271 W/m 6,4 km/h (2 Bft) 95,74 %
17.01.2023 13:02 4,2 C 8,9 C 1,1 C 82 % 988,2 hPa 0,0 l/m 2 min 0 min 299 W/m 3,2 km/h (1 Bft) 93,62 %
17.01.2023 13:04 4,2 C 9,4 C 1,1 C 81 % 988,2 hPa 0,0 l/m 2 min 0 min 280 W/m 3,2 km/h (1 Bft) 93,62 %
17.01.2023 13:06 4,3 C 10,6 C 1,1 C 81 % 988,1 hPa 0,0 l/m 2 min 0 min 331 W/m 3,2 km/h (1 Bft) 95,74 %
17.01.2023 13:08 4,3 C 10,6 C 1,1 C 81 % 988,2 hPa 0,0 l/m 2 min 0 min 303 W/m 9,7 km/h (2 Bft) 95,74 %
17.01.2023 13:10 4,4 C 10,0 C 1,1 C 81 % 988,2 hPa 0,0 l/m 2 min 0 min 327 W/m 6,4 km/h (2 Bft) 97,87 %
17.01.2023 13:12 4,4 C 10,0 C 1,1 C 81 % 988,1 hPa 0,0 l/m 2 min 0 min 252 W/m 3,2 km/h (1 Bft) 97,83 %
17.01.2023 13:14 4,5 C 9,4 C 1,1 C 81 % 988,1 hPa 0,0 l/m 2 min 0 min 241 W/m 6,4 km/h (2 Bft) 97,87 %
17.01.2023 13:16 4,5 C 10,0 C 1,1 C 81 % 988,1 hPa 0,0 l/m 2 min 0 min 254 W/m 6,4 km/h (2 Bft) 97,87 %
17.01.2023 13:18 4,6 C 10,0 C 1,1 C 81 % 988,1 hPa 0,0 l/m 2 min 0 min 263 W/m 6,4 km/h (2 Bft) 97,92 %
17.01.2023 13:20 4,6 C 10,6 C 1,1 C 80 % 988,1 hPa 0,0 l/m 2 min 0 min 250 W/m 3,2 km/h (1 Bft) 100,00 %
17.01.2023 13:22 4,7 C 11,1 C 1,1 C 80 % 988,1 hPa 0,0 l/m 2 min 0 min 280 W/m 6,4 km/h (2 Bft) 100,00 %
17.01.2023 13:24 4,8 C 11,7 C 1,1 C 80 % 988,0 hPa 0,0 l/m 2 min 0 min 295 W/m 6,4 km/h (2 Bft) 100,00 %
17.01.2023 13:26 4,8 C 12,2 C 1,1 C 79 % 988,0 hPa 0,0 l/m 2 min 0 min 290 W/m 6,4 km/h (2 Bft) 97,87 %
17.01.2023 13:28 4,9 C 12,2 C 0,6 C 79 % 988,0 hPa 0,0 l/m 2 min 0 min 305 W/m 6,4 km/h (2 Bft) 100,00 %
17.01.2023 13:30 5,0 C 12,2 C 0,6 C 79 % 988,0 hPa 0,0 l/m 2 min 0 min 305 W/m 6,4 km/h (2 Bft) 97,87 %
17.01.2023 13:32 5,1 C 12,2 C 0,6 C 79 % 988,0 hPa 0,0 l/m 2 min 0 min 307 W/m 9,7 km/h (2 Bft) 100,00 %
17.01.2023 13:34 5,2 C 11,7 C 0,6 C 78 % 988,0 hPa 0,0 l/m 2 min 0 min 303 W/m 6,4 km/h (2 Bft) 100,00 %
17.01.2023 13:36 5,2 C 9,4 C 0,6 C 77 % 988,0 hPa 0,0 l/m 2 min 0 min 205 W/m 3,2 km/h (1 Bft) 100,00 %
17.01.2023 13:38 5,2 C 10,6 C 0,6 C 78 % 988,0 hPa 0,0 l/m 2 min 0 min 208 W/m 0,0 km/h (0 Bft) 100,00 %
17.01.2023 13:40 5,2 C 8,9 C 0,6 C 77 % 988,0 hPa 0,0 l/m 2 min 0 min 222 W/m 6,4 km/h (2 Bft) 97,87 %
17.01.2023 13:42 5,1 C 7,2 C 0,6 C 76 % 988,0 hPa 0,0 l/m 0 min 0 min 55 W/m 3,2 km/h (1 Bft) 100,00 %
17.01.2023 13:44 5,1 C 6,1 C 0,6 C 76 % 987,9 hPa 0,0 l/m 0 min 0 min 55 W/m 0,0 km/h (0 Bft) 100,00 %
17.01.2023 13:46 5,0 C 6,1 C 0,6 C 76 % 987,9 hPa 0,0 l/m 0 min 0 min 60 W/m 3,2 km/h (1 Bft) 97,87 %
17.01.2023 13:48 4,9 C 5,6 C 0,6 C 76 % 987,9 hPa 0,0 l/m 0 min 0 min 54 W/m 3,2 km/h (1 Bft) 100,00 %
17.01.2023 13:50 4,8 C 5,0 C 0,6 C 77 % 987,9 hPa 0,0 l/m 0 min 0 min 48 W/m 6,4 km/h (2 Bft) 100,00 %
17.01.2023 13:52 4,8 C 4,4 C 0,6 C 77 % 987,9 hPa 0,0 l/m 0 min 0 min 53 W/m 0,0 km/h (0 Bft) 100,00 %
17.01.2023 13:54 4,7 C 4,4 C 0,0 C 77 % 987,9 hPa 0,0 l/m 0 min 0 min 97 W/m 0,0 km/h (0 Bft) 97,87 %
17.01.2023 13:56 4,7 C 4,4 C 0,0 C 77 % 987,9 hPa 0,0 l/m 0 min 0 min 63 W/m 0,0 km/h (0 Bft) 100,00 %
17.01.2023 13:58 4,6 C 4,4 C 0,0 C 78 % 987,9 hPa 0,0 l/m 0 min 0 min 51 W/m 3,2 km/h (1 Bft) 100,00 %
17.01.2023 14:00 4,6 C 3,9 C 0,0 C 78 % 987,9 hPa 0,0 l/m 0 min 0 min 51 W/m 0,0 km/h (0 Bft) 95,74 %
17.01.2023 14:02 4,6 C 4,4 C 0,0 C 78 % 987,9 hPa 0,0 l/m 0 min 0 min 107 W/m 0,0 km/h (0 Bft) 97,87 %
17.01.2023 14:04 4,6 C 5,6 C 0,0 C 79 % 987,9 hPa 0,0 l/m 0 min 0 min 148 W/m 0,0 km/h (0 Bft) 100,00 %
17.01.2023 14:06 4,5 C 5,6 C 0,0 C 79 % 987,9 hPa 0,0 l/m 0 min 0 min 92 W/m 6,4 km/h (2 Bft) 100,00 %
17.01.2023 14:08 4,5 C 5,0 C 0,0 C 79 % 987,9 hPa 0,0 l/m 0 min 0 min 70 W/m 6,4 km/h (2 Bft) 100,00 %
17.01.2023 14:10 4,4 C 4,4 C 0,6 C 79 % 987,9 hPa 0,0 l/m 0 min 0 min 78 W/m 6,4 km/h (2 Bft) 100,00 %
17.01.2023 14:12 4,3 C 5,6 C 0,6 C 79 % 987,9 hPa 0,0 l/m 2 min 0 min 179 W/m 3,2 km/h (1 Bft) 100,00 %
17.01.2023 14:14 4,3 C 5,6 C 0,6 C 79 % 987,9 hPa 0,0 l/m 2 min 0 min 234 W/m 3,2 km/h (1 Bft) 100,00 %
17.01.2023 14:16 4,3 C 6,1 C 0,6 C 79 % 987,9 hPa 0,0 l/m 2 min 0 min 160 W/m 0,0 km/h (0 Bft) 100,00 %
17.01.2023 14:18 4,3 C 6,7 C 0,6 C 79 % 987,9 hPa 0,0 l/m 2 min 0 min 177 W/m 0,0 km/h (0 Bft) 100,00 %
17.01.2023 14:20 4,3 C 6,7 C 0,6 C 80 % 987,9 hPa 0,0 l/m 0 min 0 min 126 W/m 6,4 km/h (2 Bft) 100,00 %
17.01.2023 14:22 4,3 C 6,1 C 0,6 C 79 % 987,9 hPa 0,0 l/m 0 min 0 min 83 W/m 3,2 km/h (1 Bft) 97,83 %
17.01.2023 14:24 4,3 C 5,6 C 0,6 C 79 % 987,9 hPa 0,0 l/m 0 min 0 min 108 W/m 6,4 km/h (2 Bft) 100,00 %
17.01.2023 14:26 4,3 C 5,6 C 0,6 C 79 % 987,9 hPa 0,0 l/m 0 min 0 min 96 W/m 3,2 km/h (1 Bft) 100,00 %
17.01.2023 14:28 4,3 C 5,0 C 0,6 C 79 % 987,9 hPa 0,0 l/m 0 min 0 min 70 W/m 16,1 km/h (3 Bft) 95,74 %
17.01.2023 14:30 4,2 C 4,4 C 0,6 C 79 % 987,9 hPa 0,0 l/m 0 min 0 min 71 W/m 6,4 km/h (2 Bft) 97,87 %
17.01.2023 14:32 4,2 C 4,4 C 0,6 C 79 % 987,9 hPa 0,0 l/m 0 min 0 min 74 W/m 3,2 km/h (1 Bft) 100,00 %
17.01.2023 14:34 4,2 C 3,9 C 0,6 C 79 % 987,9 hPa 0,0 l/m 0 min 0 min 71 W/m 3,2 km/h (1 Bft) 97,87 %
17.01.2023 14:36 4,2 C 3,9 C 0,6 C 79 % 987,9 hPa 0,0 l/m 0 min 0 min 64 W/m 3,2 km/h (1 Bft) 93,48 %
17.01.2023 14:38 4,1 C 3,9 C 0,6 C 80 % 987,9 hPa 0,0 l/m 0 min 0 min 64 W/m 3,2 km/h (1 Bft) 97,87 %
17.01.2023 14:40 4,1 C 3,9 C 0,6 C 80 % 987,9 hPa 0,0 l/m 0 min 0 min 67 W/m 3,2 km/h (1 Bft) 97,87 %
17.01.2023 14:42 4,1 C 3,9 C 0,6 C 80 % 988,0 hPa 0,0 l/m 0 min 0 min 69 W/m 0,0 km/h (0 Bft) 97,87 %
17.01.2023 14:44 4,1 C 3,9 C 0,6 C 80 % 988,0 hPa 0,0 l/m 0 min 0 min 74 W/m 0,0 km/h (0 Bft) 95,74 %
17.01.2023 14:46 4,0 C 3,9 C 0,6 C 80 % 987,9 hPa 0,0 l/m 0 min 0 min 81 W/m 0,0 km/h (0 Bft) 97,87 %
17.01.2023 14:48 4,0 C 3,9 C 0,6 C 80 % 987,9 hPa 0,0 l/m 0 min 0 min 82 W/m 3,2 km/h (1 Bft) 97,87 %
17.01.2023 14:50 3,9 C 3,9 C 0,6 C 80 % 987,9 hPa 0,0 l/m 0 min 0 min 86 W/m 3,2 km/h (1 Bft) 95,65 %
17.01.2023 14:52 3,9 C 3,9 C 0,6 C 80 % 988,0 hPa 0,0 l/m 0 min 0 min 110 W/m 0,0 km/h (0 Bft) 93,62 %
17.01.2023 14:54 3,9 C 5,0 C 0,6 C 80 % 988,0 hPa 0,0 l/m 2 min 0 min 155 W/m 0,0 km/h (0 Bft) 97,87 %
17.01.2023 14:56 3,9 C 5,0 C 0,6 C 81 % 988,0 hPa 0,0 l/m 2 min 0 min 148 W/m 3,2 km/h (1 Bft) 95,74 %
17.01.2023 14:58 3,9 C 5,0 C 0,6 C 81 % 988,0 hPa 0,0 l/m 0 min 0 min 104 W/m 3,2 km/h (1 Bft) 97,87 %
17.01.2023 15:00 4,0 C 5,6 C 0,6 C 81 % 988,0 hPa 0,0 l/m 2 min 0 min 162 W/m 0,0 km/h (0 Bft) 97,87 %
17.01.2023 15:02 4,1 C 6,1 C 0,6 C 81 % 988,0 hPa 0,0 l/m 2 min 0 min 153 W/m 0,0 km/h (0 Bft) 93,62 %
17.01.2023 15:04 4,1 C 5,6 C 0,6 C 80 % 988,0 hPa 0,0 l/m 0 min 0 min 94 W/m 3,2 km/h (1 Bft) 95,65 %
17.01.2023 15:06 4,1 C 5,6 C 0,0 C 80 % 988,0 hPa 0,0 l/m 0 min 0 min 82 W/m 0,0 km/h (0 Bft) 95,74 %
17.01.2023 15:08 4,1 C 5,6 C 0,0 C 80 % 988,0 hPa 0,0 l/m 0 min 0 min 93 W/m 0,0 km/h (0 Bft) 95,74 %
17.01.2023 15:10 4,1 C 5,0 C 0,0 C 79 % 988,0 hPa 0,0 l/m 0 min 0 min 98 W/m 3,2 km/h (1 Bft) 93,62 %
17.01.2023 15:12 4,1 C 5,0 C 0,0 C 79 % 988,0 hPa 0,0 l/m 0 min 0 min 91 W/m 0,0 km/h (0 Bft) 95,74 %
17.01.2023 15:14 4,1 C 4,4 C 0,0 C 79 % 988,0 hPa 0,0 l/m 0 min 0 min 87 W/m 0,0 km/h (0 Bft) 95,74 %
17.01.2023 15:16 4,1 C 4,4 C 0,0 C 78 % 988,0 hPa 0,0 l/m 0 min 0 min 79 W/m 0,0 km/h (0 Bft) 95,65 %
17.01.2023 15:18 4,1 C 3,9 C 0,0 C 78 % 988,0 hPa 0,0 l/m 0 min 0 min 46 W/m 3,2 km/h (1 Bft) 97,87 %
17.01.2023 15:20 4,1 C 3,9 C 0,0 C 78 % 988,1 hPa 0,0 l/m 0 min 0 min 44 W/m 3,2 km/h (1 Bft) 91,49 %
17.01.2023 15:22 4,1 C 3,3 C 0,0 C 78 % 988,1 hPa 0,0 l/m 0 min 0 min 46 W/m 0,0 km/h (0 Bft) 93,62 %
17.01.2023 15:24 4,1 C 3,3 C -0,6 C 78 % 988,1 hPa 0,0 l/m 0 min 0 min 49 W/m 0,0 km/h (0 Bft) 95,74 %
17.01.2023 15:26 4,1 C 3,3 C 0,0 C 78 % 988,0 hPa 0,0 l/m 0 min 0 min 47 W/m 0,0 km/h (0 Bft) 97,87 %
17.01.2023 15:28 4,1 C 3,3 C -0,6 C 78 % 988,1 hPa 0,0 l/m 0 min 0 min 42 W/m 0,0 km/h (0 Bft) 97,87 %
17.01.2023 15:30 4,1 C 3,3 C -0,6 C 78 % 988,1 hPa 0,0 l/m 0 min 0 min 37 W/m 0,0 km/h (0 Bft) 97,83 %
17.01.2023 15:32 4,1 C 2,8 C -0,6 C 78 % 988,1 hPa 0,0 l/m 0 min 0 min 33 W/m 0,0 km/h (0 Bft) 97,87 %
17.01.2023 15:34 4,1 C 2,8 C -0,6 C 78 % 988,1 hPa 0,0 l/m 0 min 0 min 33 W/m 0,0 km/h (0 Bft) 97,87 %
17.01.2023 15:36 4,1 C 2,8 C -0,6 C 78 % 988,1 hPa 0,0 l/m 0 min 0 min 32 W/m 0,0 km/h (0 Bft) 97,87 %
17.01.2023 15:38 4,1 C 2,8 C -0,6 C 78 % 988,1 hPa 0,0 l/m 0 min 0 min 30 W/m 0,0 km/h (0 Bft) 95,74 %
17.01.2023 15:40 4,1 C 2,8 C -1,1 C 78 % 988,1 hPa 0,0 l/m 0 min 0 min 28 W/m 0,0 km/h (0 Bft) 95,74 %
17.01.2023 15:42 4,0 C 2,8 C -1,1 C 77 % 988,1 hPa 0,0 l/m 0 min 0 min 28 W/m 0,0 km/h (0 Bft) 97,87 %
17.01.2023 15:44 3,9 C 2,8 C -1,1 C 77 % 988,1 hPa 0,0 l/m 0 min 0 min 26 W/m 0,0 km/h (0 Bft) 97,83 %
17.01.2023 15:46 3,9 C 2,2 C -1,1 C 77 % 988,1 hPa 0,0 l/m 0 min 0 min 25 W/m 0,0 km/h (0 Bft) 95,74 %
17.01.2023 15:48 3,9 C 2,2 C -1,1 C 77 % 988,1 hPa 0,0 l/m 0 min 0 min 25 W/m 3,2 km/h (1 Bft) 57,45 %
17.01.2023 15:50 3,8 C 2,2 C -1,1 C 77 % 988,1 hPa 0,0 l/m 0 min 0 min 25 W/m 3,2 km/h (1 Bft) 95,74 %
17.01.2023 15:52 3,8 C 2,2 C -1,1 C 77 % 988,1 hPa 0,0 l/m 0 min 0 min 25 W/m 0,0 km/h (0 Bft) 97,87 %
17.01.2023 15:54 3,8 C 2,2 C -1,1 C 77 % 988,1 hPa 0,0 l/m 0 min 0 min 24 W/m 0,0 km/h (0 Bft) 95,74 %
17.01.2023 15:56 3,7 C 2,2 C -1,1 C 77 % 988,1 hPa 0,0 l/m 0 min 0 min 23 W/m 0,0 km/h (0 Bft) 95,74 %
17.01.2023 15:58 3,7 C 2,2 C -1,1 C 78 % 988,1 hPa 0,0 l/m 0 min 0 min 23 W/m 0,0 km/h (0 Bft) 95,65 %
17.01.2023 16:00 3,7 C 1,7 C -1,7 C 78 % 988,1 hPa 0,0 l/m 0 min 0 min 23 W/m 0,0 km/h (0 Bft) 97,87 %
17.01.2023 16:02 3,6 C 1,7 C -1,7 C 78 % 988,1 hPa 0,0 l/m 0 min 0 min 24 W/m 0,0 km/h (0 Bft) 97,87 %
17.01.2023 16:04 3,6 C 1,7 C -1,7 C 78 % 988,1 hPa 0,0 l/m 0 min 0 min 26 W/m 0,0 km/h (0 Bft) 97,87 %
17.01.2023 16:06 3,6 C 1,7 C -1,7 C 78 % 988,1 hPa 0,0 l/m 0 min 0 min 25 W/m 0,0 km/h (0 Bft) 97,87 %
17.01.2023 16:08 3,5 C 1,7 C -1,7 C 79 % 988,1 hPa 0,0 l/m 0 min 0 min 23 W/m 0,0 km/h (0 Bft) 97,87 %
17.01.2023 16:10 3,5 C 1,7 C -1,7 C 79 % 988,2 hPa 0,0 l/m 0 min 0 min 21 W/m 0,0 km/h (0 Bft) 97,87 %
17.01.2023 16:12 3,4 C 1,7 C -1,7 C 79 % 988,2 hPa 0,0 l/m 0 min 0 min 22 W/m 0,0 km/h (0 Bft) 97,83 %
17.01.2023 16:14 3,4 C 1,7 C -1,7 C 79 % 988,2 hPa 0,0 l/m 0 min 0 min 23 W/m 0,0 km/h (0 Bft) 97,87 %
17.01.2023 16:16 3,4 C 1,1 C -1,7 C 79 % 988,2 hPa 0,0 l/m 0 min 0 min 21 W/m 0,0 km/h (0 Bft) 97,87 %
17.01.2023 16:18 3,3 C 1,1 C -1,7 C 80 % 988,2 hPa 0,0 l/m 0 min 0 min 20 W/m 0,0 km/h (0 Bft) 97,87 %
17.01.2023 16:20 3,3 C 1,1 C -1,7 C 80 % 988,2 hPa 0,0 l/m 0 min 0 min 19 W/m 0,0 km/h (0 Bft) 97,87 %
17.01.2023 16:22 3,3 C 1,1 C -1,7 C 80 % 988,2 hPa 0,0 l/m 0 min 0 min 21 W/m 0,0 km/h (0 Bft) 97,87 %
17.01.2023 16:24 3,2 C 1,1 C -1,7 C 80 % 988,2 hPa 0,0 l/m 0 min 0 min 19 W/m 0,0 km/h (0 Bft) 97,83 %
17.01.2023 16:26 3,2 C 1,1 C -1,7 C 80 % 988,3 hPa 0,0 l/m 0 min 0 min 19 W/m 0,0 km/h (0 Bft) 97,87 %
17.01.2023 16:28 3,1 C 1,1 C -2,2 C 80 % 988,2 hPa 0,0 l/m 0 min 0 min 18 W/m 0,0 km/h (0 Bft) 93,62 %
17.01.2023 16:30 3,1 C 1,1 C -2,2 C 80 % 988,2 hPa 0,0 l/m 0 min 0 min 16 W/m 0,0 km/h (0 Bft) 100,00 %
17.01.2023 16:32 3,1 C 0,6 C -2,2 C 80 % 988,2 hPa 0,0 l/m 0 min 0 min 16 W/m 0,0 km/h (0 Bft) 100,00 %
17.01.2023 16:34 3,0 C 0,6 C -2,2 C 80 % 988,2 hPa 0,0 l/m 0 min 0 min 14 W/m 0,0 km/h (0 Bft) 100,00 %
17.01.2023 16:36 2,9 C 0,6 C -2,2 C 81 % 988,2 hPa 0,0 l/m 0 min 0 min 14 W/m 0,0 km/h (0 Bft) 100,00 %
17.01.2023 16:38 2,9 C 0,6 C -2,2 C 81 % 988,2 hPa 0,0 l/m 0 min 0 min 13 W/m 0,0 km/h (0 Bft) 97,83 %
17.01.2023 16:40 2,9 C 0,6 C -2,2 C 81 % 988,1 hPa 0,0 l/m 0 min 0 min 12 W/m 0,0 km/h (0 Bft) 54,55 %
17.01.2023 16:42 2,8 C 0,6 C -2,2 C 81 % 988,2 hPa 0,0 l/m 0 min 0 min 12 W/m 0,0 km/h (0 Bft) 100,00 %
17.01.2023 16:44 2,8 C 0,6 C -2,2 C 81 % 988,2 hPa 0,0 l/m 0 min 0 min 11 W/m 0,0 km/h (0 Bft) 100,00 %
17.01.2023 16:46 2,8 C 0,0 C -2,2 C 81 % 988,2 hPa 0,0 l/m 0 min 0 min 10 W/m 0,0 km/h (0 Bft) 100,00 %
17.01.2023 16:48 2,7 C 0,0 C -2,8 C 81 % 988,2 hPa 0,0 l/m 0 min 0 min 8 W/m 0,0 km/h (0 Bft) 97,87 %
17.01.2023 16:50 2,6 C 0,0 C -2,8 C 81 % 988,2 hPa 0,0 l/m 0 min 0 min 7 W/m 0,0 km/h (0 Bft) 100,00 %
17.01.2023 16:52 2,6 C 0,0 C -2,8 C 81 % 988,2 hPa 0,0 l/m 0 min 0 min 6 W/m 0,0 km/h (0 Bft) 95,74 %
17.01.2023 16:54 2,6 C 0,0 C -2,8 C 81 % 988,2 hPa 0,0 l/m 0 min 0 min 5 W/m 0,0 km/h (0 Bft) 95,65 %
17.01.2023 16:56 2,5 C 0,0 C -2,8 C 81 % 988,2 hPa 0,0 l/m 0 min 0 min 5 W/m 0,0 km/h (0 Bft) 97,87 %
17.01.2023 16:58 2,4 C 0,0 C -2,8 C 82 % 988,2 hPa 0,0 l/m 0 min 0 min 0 W/m 0,0 km/h (0 Bft) 93,62 %
17.01.2023 17:00 2,4 C 0,0 C -2,8 C 82 % 988,3 hPa 0,0 l/m 0 min 0 min 0 W/m 0,0 km/h (0 Bft) 97,14 %
17.01.2023 17:02 2,3 C 0,0 C -2,8 C 82 % 988,3 hPa 0,0 l/m 0 min 0 min 0 W/m 0,0 km/h (0 Bft) 98,15 %
17.01.2023 17:04 2,3 C 0,0 C -2,8 C 82 % 988,3 hPa 0,0 l/m 0 min 0 min 0 W/m 0,0 km/h (0 Bft) 93,62 %
17.01.2023 17:06 2,2 C 0,0 C -2,8 C 82 % 988,4 hPa 0,0 l/m 0 min 0 min 0 W/m 0,0 km/h (0 Bft) 95,74 %
17.01.2023 17:08 2,2 C -0,6 C -2,8 C 82 % 988,4 hPa 0,0 l/m 0 min 0 min 0 W/m 0,0 km/h (0 Bft) 97,87 %
17.01.2023 17:10 2,1 C -0,6 C -2,8 C 82 % 988,5 hPa 0,0 l/m 0 min 0 min 0 W/m 0,0 km/h (0 Bft) 95,74 %
17.01.2023 17:12 2,1 C -0,6 C -2,8 C 82 % 988,5 hPa 0,0 l/m 0 min 0 min 0 W/m 0,0 km/h (0 Bft) 97,87 %
17.01.2023 17:14 2,0 C -0,6 C -2,8 C 82 % 988,5 hPa 0,0 l/m 0 min 0 min 0 W/m 0,0 km/h (0 Bft) 95,74 %
17.01.2023 17:16 1,9 C -0,6 C -3,3 C 82 % 988,5 hPa 0,0 l/m 0 min 0 min 0 W/m 0,0 km/h (0 Bft) 97,83 %
17.01.2023 17:18 1,9 C -0,6 C -3,3 C 82 % 988,5 hPa 0,0 l/m 0 min 0 min 0 W/m 3,2 km/h (1 Bft) 97,87 %
17.01.2023 17:20 1,8 C -1,1 C -3,3 C 82 % 988,6 hPa 0,0 l/m 0 min 0 min 0 W/m 0,0 km/h (0 Bft) 97,87 %
17.01.2023 17:22 1,8 C -0,6 C -3,3 C 83 % 988,6 hPa 0,0 l/m 0 min 0 min 0 W/m 0,0 km/h (0 Bft) 97,87 %
17.01.2023 17:24 1,7 C -0,6 C -3,3 C 83 % 988,6 hPa 0,0 l/m 0 min 0 min 0 W/m 0,0 km/h (0 Bft) 95,74 %
17.01.2023 17:26 1,7 C -1,1 C -3,3 C 83 % 988,7 hPa 0,0 l/m 0 min 0 min 0 W/m 0,0 km/h (0 Bft) 97,87 %
17.01.2023 17:28 1,6 C -1,1 C -3,3 C 83 % 988,7 hPa 0,0 l/m 0 min 0 min 0 W/m 0,0 km/h (0 Bft) 100,00 %
17.01.2023 17:30 1,6 C -1,1 C -3,3 C 83 % 988,7 hPa 0,0 l/m 0 min 0 min 0 W/m 0,0 km/h (0 Bft) 97,83 %
17.01.2023 17:32 1,5 C -1,1 C -3,3 C 83 % 988,6 hPa 0,0 l/m 0 min 0 min 0 W/m 0,0 km/h (0 Bft) 100,00 %
17.01.2023 17:34 1,4 C -1,1 C -3,3 C 83 % 988,6 hPa 0,0 l/m 0 min 0 min 0 W/m 0,0 km/h (0 Bft) 100,00 %
17.01.2023 17:36 1,4 C -1,1 C -3,3 C 83 % 988,7 hPa 0,0 l/m 0 min 0 min 0 W/m 0,0 km/h (0 Bft) 97,87 %
17.01.2023 17:38 1,3 C -1,1 C -3,3 C 83 % 988,6 hPa 0,0 l/m 0 min 0 min 0 W/m 0,0 km/h (0 Bft) 100,00 %
17.01.2023 17:40 1,3 C -1,1 C -3,3 C 83 % 988,6 hPa 0,0 l/m 0 min 0 min 0 W/m 0,0 km/h (0 Bft) 97,87 %
17.01.2023 17:42 1,2 C -1,1 C -3,3 C 84 % 988,7 hPa 0,0 l/m 0 min 0 min 0 W/m 0,0 km/h (0 Bft) 91,30 %
17.01.2023 17:44 1,2 C -1,1 C -3,3 C 84 % 988,7 hPa 0,0 l/m 0 min 0 min 0 W/m 0,0 km/h (0 Bft) 97,87 %
17.01.2023 17:46 1,1 C -1,1 C -3,3 C 84 % 988,7 hPa 0,0 l/m 0 min 0 min 0 W/m 0,0 km/h (0 Bft) 97,87 %
17.01.2023 17:48 1,1 C -1,1 C -3,3 C 84 % 988,7 hPa 0,0 l/m 0 min 0 min 0 W/m 0,0 km/h (0 Bft) 93,62 %
17.01.2023 17:50 1,1 C -1,1 C -3,9 C 84 % 988,8 hPa 0,0 l/m 0 min 0 min 0 W/m 0,0 km/h (0 Bft) 97,87 %
17.01.2023 17:52 1,0 C -1,1 C -3,9 C 84 % 988,7 hPa 0,0 l/m 0 min 0 min 0 W/m 0,0 km/h (0 Bft) 97,87 %
17.01.2023 17:54 0,9 C -1,1 C -3,9 C 84 % 988,8 hPa 0,0 l/m 0 min 0 min 0 W/m 0,0 km/h (0 Bft) 95,74 %
17.01.2023 17:56 0,9 C -1,1 C -3,9 C 84 % 988,8 hPa 0,0 l/m 0 min 0 min 0 W/m 0,0 km/h (0 Bft) 95,65 %
17.01.2023 17:58 0,8 C -1,7 C -3,9 C 84 % 988,8 hPa 0,0 l/m 0 min 0 min 0 W/m 0,0 km/h (0 Bft) 95,74 %
17.01.2023 18:00 0,8 C -1,7 C -3,9 C 84 % 988,8 hPa 0,0 l/m 0 min 0 min 0 W/m 0,0 km/h (0 Bft) 95,74 %
17.01.2023 18:02 0,7 C -1,7 C -3,9 C 84 % 988,9 hPa 0,0 l/m 0 min 0 min 0 W/m 0,0 km/h (0 Bft) 97,87 %
17.01.2023 18:04 0,6 C -1,7 C -3,9 C 84 % 988,9 hPa 0,0 l/m 0 min 0 min 0 W/m 0,0 km/h (0 Bft) 95,74 %
17.01.2023 18:07 0,6 C -1,7 C -3,9 C 84 % 988,9 hPa 0,0 l/m 0 min 0 min 0 W/m 0,0 km/h (0 Bft) 97,18 %
17.01.2023 18:08 0,6 C -1,7 C -3,9 C 84 % 988,9 hPa 0,0 l/m 0 min 0 min 0 W/m 0,0 km/h (0 Bft) 95,83 %
17.01.2023 18:12 0,5 C -1,7 C -3,9 C 84 % 988,9 hPa 0,0 l/m 0 min 0 min 0 W/m 0,0 km/h (0 Bft) 96,08 %
17.01.2023 18:14 0,4 C -1,7 C -3,9 C 84 % 989,0 hPa 0,0 l/m 0 min 0 min 0 W/m 0,0 km/h (0 Bft) 97,87 %
17.01.2023 18:16 0,4 C -1,7 C -3,9 C 85 % 989,0 hPa 0,0 l/m 0 min 0 min 0 W/m 0,0 km/h (0 Bft) 97,83 %
17.01.2023 18:18 0,3 C -1,7 C -3,9 C 85 % 988,9 hPa 0,0 l/m 0 min 0 min 0 W/m 0,0 km/h (0 Bft) 97,87 %
17.01.2023 18:20 0,3 C -1,7 C -3,9 C 85 % 988,9 hPa 0,0 l/m 0 min 0 min 0 W/m 0,0 km/h (0 Bft) 95,74 %
17.01.2023 18:22 0,2 C -1,7 C -3,9 C 85 % 988,9 hPa 0,0 l/m 0 min 0 min 0 W/m 0,0 km/h (0 Bft) 97,87 %
17.01.2023 18:24 0,2 C -1,7 C -3,9 C 85 % 988,9 hPa 0,0 l/m 0 min 0 min 0 W/m 0,0 km/h (0 Bft) 100,00 %
17.01.2023 18:26 0,2 C -1,7 C -3,9 C 85 % 988,9 hPa 0,0 l/m 0 min 0 min 0 W/m 0,0 km/h (0 Bft) 95,74 %
17.01.2023 18:28 0,1 C -1,7 C -3,9 C 85 % 989,0 hPa 0,0 l/m 0 min 0 min 0 W/m 0,0 km/h (0 Bft) 97,83 %
17.01.2023 18:30 0,1 C -1,7 C -3,9 C 85 % 989,0 hPa 0,0 l/m 0 min 0 min 0 W/m 0,0 km/h (0 Bft) 95,74 %
17.01.2023 18:32 0,0 C -1,7 C -3,9 C 85 % 989,1 hPa 0,0 l/m 0 min 0 min 0 W/m 0,0 km/h (0 Bft) 95,74 %
17.01.2023 18:34 -0,1 C -1,7 C -3,9 C 85 % 989,1 hPa 0,0 l/m 0 min 0 min 0 W/m 3,2 km/h (1 Bft) 95,74 %
17.01.2023 18:36 -0,1 C -1,7 C -3,9 C 85 % 989,1 hPa 0,0 l/m 0 min 0 min 0 W/m 0,0 km/h (0 Bft) 93,62 %
17.01.2023 18:38 -0,1 C -1,7 C -3,9 C 85 % 989,1 hPa 0,0 l/m 0 min 0 min 0 W/m 0,0 km/h (0 Bft) 93,62 %
17.01.2023 18:40 -0,2 C -1,7 C -3,9 C 86 % 989,1 hPa 0,0 l/m 0 min 0 min 0 W/m 0,0 km/h (0 Bft) 95,74 %
17.01.2023 18:42 -0,2 C -1,7 C -3,9 C 86 % 989,2 hPa 0,0 l/m 0 min 0 min 0 W/m 0,0 km/h (0 Bft) 93,48 %
17.01.2023 18:44 -0,2 C -1,7 C -3,9 C 86 % 989,1 hPa 0,0 l/m 0 min 0 min 0 W/m 0,0 km/h (0 Bft) 95,74 %
17.01.2023 18:46 -0,3 C -1,7 C -3,9 C 86 % 989,2 hPa 0,0 l/m 0 min 0 min 0 W/m 0,0 km/h (0 Bft) 95,74 %
17.01.2023 18:48 -0,3 C -1,7 C -3,9 C 86 % 989,2 hPa 0,0 l/m 0 min 0 min 0 W/m 0,0 km/h (0 Bft) 95,74 %
17.01.2023 18:50 -0,3 C -1,7 C -3,9 C 86 % 989,3 hPa 0,0 l/m 0 min 0 min 0 W/m 0,0 km/h (0 Bft) 93,62 %
17.01.2023 18:52 -0,3 C -1,7 C -3,9 C 86 % 989,3 hPa 0,0 l/m 0 min 0 min 0 W/m 0,0 km/h (0 Bft) 91,49 %
17.01.2023 18:54 -0,4 C -1,7 C -3,9 C 86 % 989,3 hPa 0,0 l/m 0 min 0 min 0 W/m 0,0 km/h (0 Bft) 97,87 %
17.01.2023 18:56 -0,4 C -2,2 C -3,9 C 86 % 989,3 hPa 0,0 l/m 0 min 0 min 0 W/m 0,0 km/h (0 Bft) 97,83 %
17.01.2023 18:58 -0,4 C -2,2 C -3,9 C 86 % 989,4 hPa 0,0 l/m 0 min 0 min 0 W/m 0,0 km/h (0 Bft) 97,87 %
17.01.2023 19:00 -0,5 C -2,2 C -3,9 C 86 % 989,3 hPa 0,0 l/m 0 min 0 min 0 W/m 0,0 km/h (0 Bft) 95,74 %
17.01.2023 19:02 -0,5 C -2,2 C -3,9 C 87 % 989,4 hPa 0,0 l/m 0 min 0 min 0 W/m 0,0 km/h (0 Bft) 97,87 %
17.01.2023 19:04 -0,6 C -2,2 C -4,4 C 87 % 989,4 hPa 0,0 l/m 0 min 0 min 0 W/m 0,0 km/h (0 Bft) 97,87 %
17.01.2023 19:06 -0,6 C -2,2 C -3,9 C 87 % 989,4 hPa 0,0 l/m 0 min 0 min 0 W/m 0,0 km/h (0 Bft) 93,10 %
17.01.2023 19:08 -0,6 C -2,2 C -4,4 C 87 % 989,4 hPa 0,0 l/m 0 min 0 min 0 W/m 0,0 km/h (0 Bft) 97,22 %
17.01.2023 19:10 -0,7 C -2,2 C -4,4 C 87 % 989,4 hPa 0,0 l/m 0 min 0 min 0 W/m 0,0 km/h (0 Bft) 93,48 %
17.01.2023 19:12 -0,7 C -2,2 C -4,4 C 87 % 989,4 hPa 0,0 l/m 0 min 0 min 0 W/m 0,0 km/h (0 Bft) 97,87 %
17.01.2023 19:14 -0,7 C -2,2 C -4,4 C 87 % 989,5 hPa 0,0 l/m 0 min 0 min 0 W/m 3,2 km/h (1 Bft) 95,74 %
17.01.2023 19:16 -0,7 C -2,2 C -4,4 C 87 % 989,5 hPa 0,0 l/m 0 min 0 min 0 W/m 3,2 km/h (1 Bft) 95,74 %
17.01.2023 19:18 -0,7 C -2,2 C -4,4 C 87 % 989,5 hPa 0,0 l/m 0 min 0 min 0 W/m 0,0 km/h (0 Bft) 55,32 %
17.01.2023 19:20 -0,8 C -2,2 C -4,4 C 87 % 989,5 hPa 0,0 l/m 0 min 0 min 0 W/m 0,0 km/h (0 Bft) 95,74 %
17.01.2023 19:22 -0,8 C -2,2 C -4,4 C 87 % 989,5 hPa 0,0 l/m 0 min 0 min 0 W/m 0,0 km/h (0 Bft) 97,83 %
17.01.2023 19:24 -0,8 C -2,2 C -3,9 C 87 % 989,6 hPa 0,0 l/m 0 min 0 min 0 W/m 0,0 km/h (0 Bft) 93,62 %
17.01.2023 19:26 -0,8 C -2,2 C -3,9 C 88 % 989,6 hPa 0,0 l/m 0 min 0 min 0 W/m 0,0 km/h (0 Bft) 91,49 %
17.01.2023 19:28 -0,8 C -2,2 C -4,4 C 88 % 989,6 hPa 0,0 l/m 0 min 0 min 0 W/m 0,0 km/h (0 Bft) 89,36 %
17.01.2023 19:30 -0,9 C -2,2 C -4,4 C 88 % 989,6 hPa 0,0 l/m 0 min 0 min 0 W/m 0,0 km/h (0 Bft) 93,62 %
17.01.2023 19:32 -0,9 C -2,2 C -4,4 C 88 % 989,6 hPa 0,0 l/m 0 min 0 min 0 W/m 0,0 km/h (0 Bft) 95,74 %
17.01.2023 19:34 -0,9 C -2,2 C -4,4 C 88 % 989,6 hPa 0,0 l/m 0 min 0 min 0 W/m 0,0 km/h (0 Bft) 95,74 %
17.01.2023 19:36 -0,9 C -2,2 C -4,4 C 88 % 989,7 hPa 0,0 l/m 0 min 0 min 0 W/m 0,0 km/h (0 Bft) 93,48 %
17.01.2023 19:38 -1,0 C -2,2 C -4,4 C 88 % 989,7 hPa 0,0 l/m 0 min 0 min 0 W/m 0,0 km/h (0 Bft) 95,74 %
17.01.2023 19:40 -1,0 C -2,2 C -4,4 C 88 % 989,7 hPa 0,0 l/m 0 min 0 min 0 W/m 0,0 km/h (0 Bft) 91,49 %
17.01.2023 19:42 -1,1 C -2,2 C -4,4 C 88 % 989,7 hPa 0,0 l/m 0 min 0 min 0 W/m 0,0 km/h (0 Bft) 97,87 %
17.01.2023 19:44 -1,1 C -2,2 C -4,4 C 88 % 989,7 hPa 0,0 l/m 0 min 0 min 0 W/m 0,0 km/h (0 Bft) 97,87 %
17.01.2023 19:46 -1,1 C -2,2 C -4,4 C 88 % 989,7 hPa 0,0 l/m 0 min 0 min 0 W/m 0,0 km/h (0 Bft) 100,00 %
17.01.2023 19:48 -1,1 C -2,2 C -4,4 C 88 % 989,8 hPa 0,0 l/m 0 min 0 min 0 W/m 0,0 km/h (0 Bft) 100,00 %
17.01.2023 19:50 -1,1 C -2,2 C -4,4 C 88 % 989,8 hPa 0,0 l/m 0 min 0 min 0 W/m 0,0 km/h (0 Bft) 100,00 %
17.01.2023 19:52 -1,2 C -2,2 C -4,4 C 88 % 989,8 hPa 0,0 l/m 0 min 0 min 0 W/m 0,0 km/h (0 Bft) 97,87 %
17.01.2023 19:54 -1,2 C -2,2 C -4,4 C 88 % 989,8 hPa 0,0 l/m 0 min 0 min 0 W/m 0,0 km/h (0 Bft) 100,00 %
17.01.2023 19:56 -1,2 C -2,2 C -4,4 C 88 % 989,8 hPa 0,0 l/m 0 min 0 min 0 W/m 0,0 km/h (0 Bft) 100,00 %
17.01.2023 19:58 -1,3 C -2,8 C -4,4 C 88 % 989,8 hPa 0,0 l/m 0 min 0 min 0 W/m 0,0 km/h (0 Bft) 100,00 %
17.01.2023 20:00 -1,3 C -2,8 C -4,4 C 89 % 989,8 hPa 0,0 l/m 0 min 0 min 0 W/m 0,0 km/h (0 Bft) 97,87 %
17.01.2023 20:02 -1,3 C -2,8 C -4,4 C 89 % 989,8 hPa 0,0 l/m 0 min 0 min 0 W/m 0,0 km/h (0 Bft) 97,83 %
17.01.2023 20:04 -1,3 C -2,8 C -4,4 C 89 % 989,8 hPa 0,0 l/m 0 min 0 min 0 W/m 0,0 km/h (0 Bft) 97,87 %
17.01.2023 20:06 -1,3 C -2,8 C -4,4 C 89 % 989,8 hPa 0,0 l/m 0 min 0 min 0 W/m 0,0 km/h (0 Bft) 94,34 %
17.01.2023 20:08 -1,4 C -2,8 C -4,4 C 89 % 989,8 hPa 0,0 l/m 0 min 0 min 0 W/m 0,0 km/h (0 Bft) 97,87 %
17.01.2023 20:10 -1,4 C -2,8 C -4,4 C 89 % 989,8 hPa 0,0 l/m 0 min 0 min 0 W/m 0,0 km/h (0 Bft) 93,62 %
17.01.2023 20:12 -1,4 C -2,8 C -4,4 C 89 % 989,8 hPa 0,0 l/m 0 min 0 min 0 W/m 0,0 km/h (0 Bft) 97,87 %
17.01.2023 20:14 -1,4 C -2,8 C -4,4 C 89 % 989,8 hPa 0,0 l/m 0 min 0 min 0 W/m 0,0 km/h (0 Bft) 97,83 %
17.01.2023 20:16 -1,4 C -2,8 C -4,4 C 89 % 989,8 hPa 0,0 l/m 0 min 0 min 0 W/m 0,0 km/h (0 Bft) 97,87 %
17.01.2023 20:18 -1,4 C -2,8 C -4,4 C 89 % 989,8 hPa 0,0 l/m 0 min 0 min 0 W/m 0,0 km/h (0 Bft) 97,87 %
17.01.2023 20:20 -1,5 C -2,8 C -4,4 C 89 % 989,8 hPa 0,0 l/m 0 min 0 min 0 W/m 0,0 km/h (0 Bft) 95,74 %
17.01.2023 20:22 -1,5 C -2,8 C -4,4 C 89 % 989,8 hPa 0,0 l/m 0 min 0 min 0 W/m 0,0 km/h (0 Bft) 97,87 %
17.01.2023 20:24 -1,6 C -2,8 C -4,4 C 89 % 989,8 hPa 0,0 l/m 0 min 0 min 0 W/m 0,0 km/h (0 Bft) 97,87 %
17.01.2023 20:26 -1,6 C -2,8 C -4,4 C 89 % 989,8 hPa 0,0 l/m 0 min 0 min 0 W/m 0,0 km/h (0 Bft) 97,87 %
17.01.2023 20:28 -1,6 C -2,8 C -4,4 C 89 % 989,8 hPa 0,0 l/m 0 min 0 min 0 W/m 0,0 km/h (0 Bft) 97,83 %
17.01.2023 20:30 -1,6 C -2,8 C -4,4 C 89 % 989,8 hPa 0,0 l/m 0 min 0 min 0 W/m 0,0 km/h (0 Bft) 97,87 %
17.01.2023 20:32 -1,6 C -2,8 C -4,4 C 90 % 989,9 hPa 0,0 l/m 0 min 0 min 0 W/m 0,0 km/h (0 Bft) 93,62 %
17.01.2023 20:34 -1,6 C -2,8 C -4,4 C 90 % 989,9 hPa 0,0 l/m 0 min 0 min 0 W/m 0,0 km/h (0 Bft) 100,00 %
17.01.2023 20:36 -1,6 C -2,8 C -5,0 C 90 % 989,9 hPa 0,0 l/m 0 min 0 min 0 W/m 0,0 km/h (0 Bft) 97,87 %
17.01.2023 20:38 -1,7 C -2,8 C -5,0 C 90 % 989,9 hPa 0,0 l/m 0 min 0 min 0 W/m 0,0 km/h (0 Bft) 100,00 %
17.01.2023 20:40 -1,7 C -2,8 C -5,0 C 90 % 990,0 hPa 0,0 l/m 0 min 0 min 0 W/m 0,0 km/h (0 Bft) 97,87 %
17.01.2023 20:42 -1,7 C -2,8 C -5,0 C 90 % 990,0 hPa 0,0 l/m 0 min 0 min 0 W/m 0,0 km/h (0 Bft) 100,00 %
17.01.2023 20:44 -1,7 C -2,8 C -5,0 C 90 % 990,0 hPa 0,0 l/m 0 min 0 min 0 W/m 0,0 km/h (0 Bft) 97,87 %
17.01.2023 20:46 -1,7 C -2,8 C -4,4 C 90 % 990,1 hPa 0,0 l/m 0 min 0 min 0 W/m 0,0 km/h (0 Bft) 100,00 %
17.01.2023 20:48 -1,7 C -2,8 C -4,4 C 90 % 990,1 hPa 0,0 l/m 0 min 0 min 0 W/m 0,0 km/h (0 Bft) 93,62 %
17.01.2023 20:50 -1,7 C -2,2 C -4,4 C 90 % 990,1 hPa 0,0 l/m 0 min 0 min 0 W/m 0,0 km/h (0 Bft) 95,74 %
17.01.2023 20:52 -1,7 C -2,8 C -4,4 C 90 % 990,2 hPa 0,0 l/m 0 min 0 min 0 W/m 0,0 km/h (0 Bft) 100,00 %
17.01.2023 20:54 -1,7 C -2,8 C -4,4 C 90 % 990,1 hPa 0,0 l/m 0 min 0 min 0 W/m 0,0 km/h (0 Bft) 97,87 %
17.01.2023 20:56 -1,7 C -2,8 C -4,4 C 90 % 990,1 hPa 0,0 l/m 0 min 0 min 0 W/m 0,0 km/h (0 Bft) 93,48 %
17.01.2023 20:58 -1,7 C -2,8 C -4,4 C 90 % 990,1 hPa 0,0 l/m 0 min 0 min 0 W/m 0,0 km/h (0 Bft) 98,11 %
17.01.2023 21:00 -1,8 C -2,8 C -5,0 C 90 % 990,2 hPa 0,0 l/m 0 min 0 min 0 W/m 0,0 km/h (0 Bft) 97,87 %
17.01.2023 21:02 -1,8 C -2,8 C -5,0 C 91 % 990,2 hPa 0,0 l/m 0 min 0 min 0 W/m 0,0 km/h (0 Bft) 95,74 %
17.01.2023 21:04 -1,8 C -2,8 C -5,0 C 91 % 990,2 hPa 0,0 l/m 0 min 0 min 0 W/m 0,0 km/h (0 Bft) 53,49 %
17.01.2023 21:06 -1,8 C -2,8 C -5,0 C 91 % 990,2 hPa 0,0 l/m 0 min 0 min 0 W/m 0,0 km/h (0 Bft) 100,00 %
17.01.2023 21:08 -1,8 C -2,8 C -5,0 C 91 % 990,2 hPa 0,0 l/m 0 min 0 min 0 W/m 0,0 km/h (0 Bft) 97,83 %
17.01.2023 21:10 -1,8 C -2,8 C -5,0 C 91 % 990,3 hPa 0,0 l/m 0 min 0 min 0 W/m 0,0 km/h (0 Bft) 100,00 %
17.01.2023 21:12 -1,7 C -2,8 C -5,0 C 91 % 990,2 hPa 0,0 l/m 0 min 0 min 0 W/m 0,0 km/h (0 Bft) 97,87 %
17.01.2023 21:14 -1,7 C -2,8 C -5,0 C 91 % 990,3 hPa 0,0 l/m 0 min 0 min 0 W/m 0,0 km/h (0 Bft) 97,87 %
17.01.2023 21:16 -1,7 C -2,8 C -5,0 C 91 % 990,3 hPa 0,0 l/m 0 min 0 min 0 W/m 0,0 km/h (0 Bft) 100,00 %
17.01.2023 21:18 -1,7 C -2,8 C -5,0 C 91 % 990,2 hPa 0,0 l/m 0 min 0 min 0 W/m 0,0 km/h (0 Bft) 100,00 %
17.01.2023 21:20 -1,7 C -2,8 C -5,0 C 91 % 990,2 hPa 0,0 l/m 0 min 0 min 0 W/m 0,0 km/h (0 Bft) 100,00 %
17.01.2023 21:22 -1,8 C -2,8 C -4,4 C 91 % 990,2 hPa 0,0 l/m 0 min 0 min 0 W/m 0,0 km/h (0 Bft) 100,00 %
17.01.2023 21:24 -1,8 C -2,8 C -5,0 C 91 % 990,3 hPa 0,0 l/m 0 min 0 min 0 W/m 0,0 km/h (0 Bft) 100,00 %
17.01.2023 21:26 -1,8 C -2,8 C -5,0 C 91 % 990,3 hPa 0,0 l/m 0 min 0 min 0 W/m 0,0 km/h (0 Bft) 100,00 %
17.01.2023 21:28 -1,8 C -2,8 C -5,0 C 91 % 990,4 hPa 0,0 l/m 0 min 0 min 0 W/m 0,0 km/h (0 Bft) 100,00 %
17.01.2023 21:30 -1,9 C -2,8 C -5,0 C 91 % 990,3 hPa 0,0 l/m 0 min 0 min 0 W/m 0,0 km/h (0 Bft) 100,00 %
17.01.2023 21:32 -1,9 C -2,8 C -5,0 C 91 % 990,4 hPa 0,0 l/m 0 min 0 min 0 W/m 0,0 km/h (0 Bft) 100,00 %
17.01.2023 21:34 -1,9 C -2,8 C -5,0 C 91 % 990,4 hPa 0,0 l/m 0 min 0 min 0 W/m 0,0 km/h (0 Bft) 95,12 %
17.01.2023 21:36 -2,0 C -2,8 C -5,0 C 91 % 990,4 hPa 0,0 l/m 0 min 0 min 0 W/m 0,0 km/h (0 Bft) 100,00 %
17.01.2023 21:38 -2,0 C -3,3 C -5,0 C 91 % 990,5 hPa 0,0 l/m 0 min 0 min 0 W/m 0,0 km/h (0 Bft) 100,00 %
17.01.2023 21:40 -2,1 C -3,3 C -5,0 C 91 % 990,5 hPa 0,0 l/m 0 min 0 min 0 W/m 0,0 km/h (0 Bft) 95,74 %
17.01.2023 21:42 -2,1 C -3,3 C -5,0 C 91 % 990,6 hPa 0,0 l/m 0 min 0 min 0 W/m 0,0 km/h (0 Bft) 100,00 %
17.01.2023 21:44 -2,1 C -3,3 C -5,0 C 91 % 990,6 hPa 0,0 l/m 0 min 0 min 0 W/m 0,0 km/h (0 Bft) 100,00 %
17.01.2023 21:46 -2,1 C -3,3 C -5,0 C 91 % 990,7 hPa 0,0 l/m 0 min 0 min 0 W/m 0,0 km/h (0 Bft) 97,87 %
17.01.2023 21:52 -2,2 C -3,3 C -5,0 C 91 % 990,7 hPa 0,0 l/m 0 min 0 min 0 W/m 0,0 km/h (0 Bft) 95,00 %
17.01.2023 21:57 -2,2 C -3,3 C -5,0 C 91 % 990,8 hPa 0,0 l/m 0 min 0 min 0 W/m 0,0 km/h (0 Bft) 100,00 %
17.01.2023 21:58 -2,2 C -3,3 C -5,0 C 91 % 990,8 hPa 0,0 l/m 0 min 0 min 0 W/m 0,0 km/h (0 Bft) 91,67 %
17.01.2023 22:00 -2,2 C -3,3 C -5,0 C 91 % 990,8 hPa 0,0 l/m 0 min 0 min 0 W/m 0,0 km/h (0 Bft) 95,83 %
17.01.2023 22:02 -2,2 C -3,3 C -5,0 C 91 % 990,8 hPa 0,0 l/m 0 min 0 min 0 W/m 0,0 km/h (0 Bft) 93,62 %
17.01.2023 22:04 -2,2 C -2,8 C -5,0 C 91 % 990,8 hPa 0,0 l/m 0 min 0 min 0 W/m 3,2 km/h (1 Bft) 95,65 %
17.01.2023 22:06 -2,1 C -2,8 C -5,0 C 92 % 990,8 hPa 0,0 l/m 0 min 0 min 0 W/m 0,0 km/h (0 Bft) 98,31 %
17.01.2023 22:08 -2,1 C -2,8 C -5,0 C 92 % 990,9 hPa 0,0 l/m 0 min 0 min 0 W/m 0,0 km/h (0 Bft) 97,14 %
17.01.2023 22:10 -2,1 C -2,8 C -5,0 C 92 % 990,8 hPa 0,0 l/m 0 min 0 min 0 W/m 0,0 km/h (0 Bft) 97,87 %
17.01.2023 22:12 -2,1 C -2,8 C -5,0 C 92 % 990,8 hPa 0,0 l/m 0 min 0 min 0 W/m 0,0 km/h (0 Bft) 95,74 %
17.01.2023 22:14 -2,1 C -2,8 C -5,0 C 92 % 990,8 hPa 0,0 l/m 0 min 0 min 0 W/m 0,0 km/h (0 Bft) 97,87 %
17.01.2023 22:16 -2,1 C -2,8 C -5,0 C 92 % 990,9 hPa 0,0 l/m 0 min 0 min 0 W/m 0,0 km/h (0 Bft) 100,00 %
17.01.2023 22:18 -2,1 C -3,3 C -5,0 C 92 % 990,9 hPa 0,0 l/m 0 min 0 min 0 W/m 0,0 km/h (0 Bft) 97,83 %
17.01.2023 22:20 -2,2 C -3,3 C -5,0 C 92 % 990,9 hPa 0,0 l/m 0 min 0 min 0 W/m 0,0 km/h (0 Bft) 95,74 %
17.01.2023 22:22 -2,2 C -3,3 C -5,0 C 92 % 991,0 hPa 0,0 l/m 0 min 0 min 0 W/m 0,0 km/h (0 Bft) 95,74 %
17.01.2023 22:24 -2,1 C -3,3 C -5,0 C 92 % 991,0 hPa 0,0 l/m 0 min 0 min 0 W/m 0,0 km/h (0 Bft) 97,87 %
17.01.2023 22:26 -2,1 C -2,8 C -5,0 C 92 % 991,0 hPa 0,0 l/m 0 min 0 min 0 W/m 0,0 km/h (0 Bft) 97,87 %
17.01.2023 22:28 -2,1 C -2,8 C -5,0 C 92 % 991,0 hPa 0,0 l/m 0 min 0 min 0 W/m 0,0 km/h (0 Bft) 97,87 %
17.01.2023 22:30 -2,1 C -2,8 C -5,0 C 92 % 991,0 hPa 0,0 l/m 0 min 0 min 0 W/m 0,0 km/h (0 Bft) 97,83 %
17.01.2023 22:32 -2,1 C -2,8 C -5,0 C 92 % 991,0 hPa 0,0 l/m 0 min 0 min 0 W/m 0,0 km/h (0 Bft) 97,87 %
17.01.2023 22:34 -2,1 C -3,3 C -5,0 C 92 % 990,9 hPa 0,0 l/m 0 min 0 min 0 W/m 0,0 km/h (0 Bft) 95,74 %
17.01.2023 22:36 -2,1 C -3,3 C -5,0 C 92 % 990,9 hPa 0,0 l/m 0 min 0 min 0 W/m 0,0 km/h (0 Bft) 95,74 %
17.01.2023 22:38 -2,1 C -3,3 C -5,0 C 92 % 991,0 hPa 0,0 l/m 0 min 0 min 0 W/m 0,0 km/h (0 Bft) 95,74 %
17.01.2023 22:40 -2,1 C -3,3 C -5,0 C 92 % 990,9 hPa 0,0 l/m 0 min 0 min 0 W/m 0,0 km/h (0 Bft) 97,87 %
17.01.2023 22:42 -2,1 C -3,3 C -5,0 C 92 % 991,0 hPa 0,0 l/m 0 min 0 min 0 W/m 0,0 km/h (0 Bft) 97,87 %
17.01.2023 22:44 -2,1 C -3,3 C -5,0 C 92 % 991,0 hPa 0,0 l/m 0 min 0 min 0 W/m 0,0 km/h (0 Bft) 100,00 %
17.01.2023 22:46 -2,1 C -3,3 C -5,0 C 92 % 991,0 hPa 0,0 l/m 0 min 0 min 0 W/m 0,0 km/h (0 Bft) 100,00 %
17.01.2023 22:48 -2,1 C -3,3 C -5,0 C 92 % 991,0 hPa 0,0 l/m 0 min 0 min 0 W/m 0,0 km/h (0 Bft) 97,87 %
17.01.2023 22:50 -2,1 C -3,3 C -5,0 C 92 % 991,0 hPa 0,0 l/m 0 min 0 min 0 W/m 0,0 km/h (0 Bft) 100,00 %
17.01.2023 22:52 -2,1 C -3,3 C -5,0 C 92 % 991,1 hPa 0,0 l/m 0 min 0 min 0 W/m 0,0 km/h (0 Bft) 100,00 %
17.01.2023 22:54 -2,1 C -3,3 C -5,0 C 92 % 991,0 hPa 0,0 l/m 0 min 0 min 0 W/m 0,0 km/h (0 Bft) 97,87 %
17.01.2023 22:56 -2,2 C -3,3 C -5,0 C 92 % 991,0 hPa 0,0 l/m 0 min 0 min 0 W/m 0,0 km/h (0 Bft) 97,87 %
17.01.2023 22:58 -2,2 C -3,3 C -5,0 C 92 % 991,1 hPa 0,0 l/m 0 min 0 min 0 W/m 0,0 km/h (0 Bft) 97,83 %
17.01.2023 23:00 -2,2 C -3,3 C -5,0 C 92 % 991,1 hPa 0,0 l/m 0 min 0 min 0 W/m 0,0 km/h (0 Bft) 97,87 %
17.01.2023 23:02 -2,2 C -3,3 C -5,0 C 92 % 991,1 hPa 0,0 l/m 0 min 0 min 0 W/m 0,0 km/h (0 Bft) 95,74 %
17.01.2023 23:04 -2,2 C -3,3 C -5,0 C 92 % 991,1 hPa 0,0 l/m 0 min 0 min 0 W/m 0,0 km/h (0 Bft) 97,87 %
17.01.2023 23:06 -2,2 C -3,3 C -5,0 C 92 % 991,1 hPa 0,0 l/m 0 min 0 min 0 W/m 0,0 km/h (0 Bft) 96,67 %
17.01.2023 23:08 -2,2 C -3,3 C -5,0 C 93 % 991,1 hPa 0,0 l/m 0 min 0 min 0 W/m 0,0 km/h (0 Bft) 100,00 %
17.01.2023 23:10 -2,2 C -3,3 C -5,0 C 92 % 991,2 hPa 0,0 l/m 0 min 0 min 0 W/m 0,0 km/h (0 Bft) 95,74 %
17.01.2023 23:12 -2,2 C -3,3 C -5,0 C 92 % 991,2 hPa 0,0 l/m 0 min 0 min 0 W/m 0,0 km/h (0 Bft) 95,65 %
17.01.2023 23:14 -2,2 C -3,3 C -5,0 C 93 % 991,2 hPa 0,0 l/m 0 min 0 min 0 W/m 0,0 km/h (0 Bft) 97,87 %
17.01.2023 23:16 -2,2 C -3,3 C -5,0 C 92 % 991,2 hPa 0,0 l/m 0 min 0 min 0 W/m 0,0 km/h (0 Bft) 97,87 %
17.01.2023 23:18 -2,3 C -3,3 C -5,0 C 92 % 991,2 hPa 0,0 l/m 0 min 0 min 0 W/m 0,0 km/h (0 Bft) 97,87 %
17.01.2023 23:20 -2,3 C -3,3 C -5,0 C 92 % 991,2 hPa 0,0 l/m 0 min 0 min 0 W/m 0,0 km/h (0 Bft) 95,74 %
17.01.2023 23:22 -2,3 C -3,3 C -5,0 C 92 % 991,2 hPa 0,0 l/m 0 min 0 min 0 W/m 0,0 km/h (0 Bft) 95,74 %
17.01.2023 23:24 -2,3 C -3,3 C -5,0 C 92 % 991,2 hPa 0,0 l/m 0 min 0 min 0 W/m 0,0 km/h (0 Bft) 97,83 %
17.01.2023 23:26 -2,4 C -3,3 C -5,0 C 93 % 991,2 hPa 0,0 l/m 0 min 0 min 0 W/m 0,0 km/h (0 Bft) 97,87 %
17.01.2023 23:28 -2,4 C -3,9 C -5,0 C 93 % 991,2 hPa 0,0 l/m 0 min 0 min 0 W/m 0,0 km/h (0 Bft) 91,49 %
17.01.2023 23:30 -2,4 C -3,9 C -5,6 C 93 % 991,2 hPa 0,0 l/m 0 min 0 min 0 W/m 0,0 km/h (0 Bft) 91,49 %
17.01.2023 23:32 -2,4 C -3,3 C -5,6 C 93 % 991,3 hPa 0,0 l/m 0 min 0 min 0 W/m 0,0 km/h (0 Bft) 95,74 %
17.01.2023 23:34 -2,4 C -3,3 C -5,6 C 93 % 991,2 hPa 0,0 l/m 0 min 0 min 0 W/m 0,0 km/h (0 Bft) 95,74 %
17.01.2023 23:36 -2,4 C -3,3 C -5,6 C 93 % 991,3 hPa 0,0 l/m 0 min 0 min 0 W/m 0,0 km/h (0 Bft) 93,48 %
17.01.2023 23:38 -2,4 C -3,3 C -5,0 C 93 % 991,3 hPa 0,0 l/m 0 min 0 min 0 W/m 0,0 km/h (0 Bft) 95,74 %
17.01.2023 23:40 -2,4 C -3,3 C -5,0 C 93 % 991,3 hPa 0,0 l/m 0 min 0 min 0 W/m 0,0 km/h (0 Bft) 95,74 %
17.01.2023 23:42 -2,4 C -3,3 C -5,0 C 93 % 991,3 hPa 0,0 l/m 0 min 0 min 0 W/m 0,0 km/h (0 Bft) 95,74 %
17.01.2023 23:44 -2,4 C -3,3 C -5,6 C 93 % 991,3 hPa 0,0 l/m 0 min 0 min 0 W/m 0,0 km/h (0 Bft) 93,62 %
17.01.2023 23:46 -2,4 C -3,3 C -5,6 C 93 % 991,3 hPa 0,0 l/m 0 min 0 min 0 W/m 0,0 km/h (0 Bft) 93,62 %
17.01.2023 23:48 -2,5 C -3,3 C -5,6 C 93 % 991,3 hPa 0,0 l/m 0 min 0 min 0 W/m 0,0 km/h (0 Bft) 93,62 %
17.01.2023 23:50 -2,5 C -3,9 C -5,6 C 93 % 991,3 hPa 0,0 l/m 0 min 0 min 0 W/m 0,0 km/h (0 Bft) 91,30 %
17.01.2023 23:52 -2,5 C -3,9 C -5,6 C 93 % 991,3 hPa 0,0 l/m 0 min 0 min 0 W/m 0,0 km/h (0 Bft) 93,62 %
17.01.2023 23:54 -2,6 C -3,9 C -5,6 C 93 % 991,3 hPa 0,0 l/m 0 min 0 min 0 W/m 0,0 km/h (0 Bft) 93,62 %
17.01.2023 23:56 -2,6 C -3,9 C -5,6 C 93 % 991,3 hPa 0,0 l/m 0 min 0 min 0 W/m 0,0 km/h (0 Bft) 93,62 %
17.01.2023 23:58 -2,6 C -3,9 C -5,6 C 93 % 991,3 hPa 0,0 l/m 0 min 0 min 0 W/m 0,0 km/h (0 Bft) 93,62 %
_ Min-Zeit 23:54 23:28 23:30 13:42 00:00 - - - - 07:00 07:10
Minimum _ -2,6 C -3,9 C -5,6 C 76 % 982,5 hPa - - - - 0,0 km/h (0 Bft) 6,38 %
_ Max-Zeit 13:34 13:26 12:58 01:46 23:32 00:40 09:32 00:12 13:06 00:26 00:04
Maximum _ 5,2 C 12,2 C 1,1 C 96 % 991,3 hPa 0,2 l/m 2 min 4 min 331 W/m 35,4 km/h
S (5 Bft)
100,00 %
Durchschnitt _ 1,5 C 1,1 C -1,9 C 90 % 987,9 hPa #2,0 l/m #3:08 h #2:22 h 118 W/m 6,6 km/h (2 Bft) 95,24 %
© 2023 W. Hausmann